GFSSE_sfc_thetae_000.txt.gz
Theta_e
341 342 354 355 354 353 351 348 348 347 346 344 342 340 338 337 336 334 332 333 333 335 337 340 342 343 342 343 344 348 354 355 355 353 356 356 353 355 355 360 360 355 360
344 345 354 355 354 352 351 351 350 350 349 347 345 343 340 338 338 337 335 333 334 335 336 339 342 342 342 343 345 348 351 354 355 356 356 355 356 357 356 357 357 355 358
342 349 349 355 354 353 352 352 351 351 351 349 347 344 341 340 339 339 337 336 335 335 336 338 339 343 343 343 344 348 350 353 354 355 356 351 351 357 355 356 356 357 357
338 348 348 355 354 354 353 353 353 352 351 349 346 345 343 341 341 340 339 339 338 337 337 337 338 340 342 343 344 347 349 352 352 353 350 350 351 357 355 357 351 354 356
337 340 354 355 354 355 354 354 354 353 350 347 344 343 342 343 342 341 341 341 340 339 338 337 338 339 343 344 347 349 349 350 350 350 348 349 349 354 356 357 356 356 357
328 336 353 357 356 355 353 354 354 350 349 347 343 341 341 342 343 342 340 340 340 340 339 337 338 341 342 344 347 348 349 349 349 347 347 349 349 353 356 356 357 356 356
333 335 344 353 349 347 346 348 350 347 345 343 342 341 341 340 340 339 340 340 340 340 340 337 338 340 342 342 345 346 348 347 347 345 347 346 347 351 354 355 356 355 356
331 335 341 347 346 344 347 346 341 338 336 337 337 337 338 338 337 337 337 337 337 339 339 338 337 339 341 342 342 344 346 347 346 344 347 346 348 351 353 353 353 353 352
331 333 336 337 343 344 343 339 335 331 331 332 333 333 334 334 334 335 336 336 337 339 339 338 338 339 340 340 341 343 345 346 343 346 347 347 349 351 352 351 350 352 351
326 325 332 335 330 335 336 336 335 332 332 331 332 332 331 331 332 334 336 336 337 338 338 338 337 336 339 340 341 342 343 345 343 346 347 347 349 350 349 347 345 349 350
324 329 329 329 331 334 334 334 335 336 334 332 332 330 329 330 331 332 336 337 336 337 337 337 337 337 338 339 341 341 342 339 341 346 346 349 350 350 347 349 346 347 349
323 327 329 330 333 336 330 337 337 335 335 334 332 331 331 331 331 331 333 333 335 335 336 336 336 336 334 332 336 337 336 336 341 342 345 349 348 349 349 348 346 348 350
326 328 327 332 335 337 334 335 333 333 333 334 333 332 331 330 330 331 333 333 333 334 332 332 332 332 330 329 330 335 334 334 340 342 346 349 349 349 347 345 346 345 345
326 329 333 336 336 339 337 333 332 334 333 330 332 332 331 330 330 332 331 332 332 333 331 332 331 333 330 329 334 334 334 333 342 340 343 349 348 347 346 347 345 345 344
327 328 334 335 339 341 339 336 335 335 331 332 332 332 331 329 329 330 331 330 330 330 330 330 332 331 328 329 334 335 335 333 343 343 344 347 345 346 347 347 345 343 345
329 331 334 336 339 339 338 337 336 336 334 334 333 328 330 331 329 330 330 330 330 330 331 331 331 331 331 333 334 337 337 338 341 343 344 344 345 344 345 345 342 344 344
329 333 334 335 336 337 337 338 337 336 336 334 334 330 329 332 330 331 330 330 329 330 329 331 331 332 332 335 336 336 336 337 340 343 342 341 341 343 343 342 345 345 345
331 333 335 330 336 338 341 338 338 337 338 337 337 332 328 331 332 331 330 330 330 330 329 329 330 331 330 331 333 333 333 338 340 342 340 339 338 339 342 343 344 345 346
332 334 335 337 334 339 339 333 335 339 339 340 337 330 328 329 333 333 330 331 331 329 329 330 328 329 330 330 332 332 334 336 341 340 338 338 338 338 338 341 342 342 343
332 336 337 336 339 341 336 335 331 340 340 339 335 330 329 329 332 333 330 330 332 329 328 329 329 330 330 331 333 332 334 337 339 337 337 338 337 336 337 334 338 339 341
332 335 337 337 340 338 333 334 336 336 338 335 336 334 332 331 331 333 331 330 332 329 328 328 330 328 328 330 328 328 332 337 336 336 337 336 334 334 334 336 336 335 337
330 334 336 337 339 338 337 340 338 337 337 337 337 335 334 331 333 333 331 330 330 329 330 328 331 327 327 329 327 327 321 326 331 333 334 332 333 334 333 334 335 336 336
329 333 334 337 338 339 340 338 338 336 334 337 335 332 331 333 333 333 332 331 330 332 329 328 329 327 327 329 331 327 320 318 325 330 331 331 332 332 332 333 333 334 334
326 331 335 337 337 337 339 338 337 332 329 334 334 334 330 333 332 332 332 331 332 332 329 329 330 328 327 325 329 332 332 327 320 320 328 330 331 330 331 331 331 333 334
327 330 334 337 337 340 341 339 336 335 334 335 334 332 332 329 333 332 332 333 331 330 331 330 330 329 331 329 329 329 329 328 327 323 319 324 329 330 331 331 332 332 334
326 328 334 336 336 339 340 338 338 333 332 332 330 330 331 332 330 332 332 333 332 331 333 333 332 330 332 332 332 329 328 325 323 322 321 322 323 327 330 331 330 330 331

GFSSE_sfc_thetae_003.txt.gz
Theta_e
334 343 356 356 355 353 351 347 347 346 346 343 341 340 338 337 336 334 331 331 332 334 335 337 339 340 342 341 342 348 349 352 354 356 356 357 358 357 357 356 359 355 359
336 344 355 355 355 353 352 351 350 350 349 346 345 344 342 340 339 338 336 334 333 334 335 336 338 341 341 341 341 346 346 350 354 356 356 356 356 357 356 356 360 355 358
337 343 351 355 355 353 353 353 352 352 351 348 347 347 345 342 341 341 339 338 337 337 336 337 338 338 342 343 342 345 348 351 354 354 354 350 352 357 356 357 357 357 358
341 344 347 355 355 354 354 353 353 353 351 350 349 347 345 344 342 342 341 341 340 339 338 338 338 338 339 341 343 344 346 348 352 352 348 349 351 357 356 356 356 357 358
343 343 347 356 354 355 354 354 353 353 351 349 348 345 343 343 343 343 342 342 342 342 341 339 339 338 339 341 345 347 347 347 350 350 348 346 346 353 355 357 355 356 356
333 345 352 356 355 355 354 354 355 352 349 348 346 343 343 342 344 344 340 341 341 342 342 341 339 340 340 343 346 347 349 347 348 346 345 346 346 352 355 354 353 355 357
338 348 353 357 357 356 353 352 352 348 345 343 343 342 341 341 341 341 341 340 341 341 341 341 340 342 342 342 343 346 347 346 344 343 343 344 344 350 355 355 355 358 358
335 341 345 354 352 350 348 348 347 343 340 337 337 338 338 339 339 339 339 339 339 339 340 340 340 342 342 342 342 343 346 344 344 342 344 340 346 350 354 354 356 357 357
326 335 338 340 343 349 348 346 343 338 334 333 333 334 334 335 335 336 336 337 337 337 339 342 340 340 341 341 340 342 344 343 341 341 345 343 350 352 353 353 354 354 355
321 323 327 333 336 337 338 342 338 336 335 334 333 333 333 332 333 334 335 336 337 337 338 340 339 339 340 340 341 343 342 343 341 340 343 344 350 351 351 351 351 352 354
319 319 318 320 321 327 331 335 337 336 336 334 332 331 331 326 325 330 333 336 338 338 338 339 339 338 339 339 340 341 340 336 338 339 342 349 349 351 351 350 350 349 351
315 316 319 322 323 324 328 328 328 328 326 325 326 325 325 324 325 329 332 334 335 338 338 338 338 337 336 328 331 339 332 335 335 337 341 349 349 350 350 348 346 345 348
316 317 317 319 323 323 324 324 323 323 323 324 325 325 324 325 324 324 326 328 327 333 329 332 331 330 329 326 326 331 332 332 332 337 343 348 349 349 348 346 345 347 346
314 315 321 323 323 324 326 325 324 325 323 322 323 325 324 323 323 324 324 325 326 326 325 326 326 327 327 326 324 330 331 330 333 336 341 347 348 348 348 347 346 346 344
315 318 322 323 323 326 326 326 324 324 323 323 324 326 325 323 325 324 324 324 323 325 325 324 325 327 326 325 324 330 331 330 336 337 338 348 347 348 347 348 347 346 343
314 317 321 322 324 326 326 326 325 326 326 326 325 324 326 326 325 322 323 322 322 322 324 324 325 325 325 323 323 330 330 332 334 336 339 344 346 345 346 347 346 344 346
314 319 320 322 323 324 324 324 326 326 327 325 325 325 326 327 326 322 322 321 321 322 322 324 324 324 324 326 326 330 331 332 335 336 339 340 342 344 346 346 346 346 345
316 319 321 325 323 323 326 325 327 327 326 325 326 325 325 326 324 323 322 321 321 321 321 322 322 322 323 324 325 327 328 330 334 337 340 339 340 340 344 344 344 344 345
316 319 320 323 321 323 325 326 326 328 327 327 326 323 323 323 326 323 322 322 322 321 320 321 321 322 321 323 326 326 328 326 332 337 336 337 338 339 339 342 343 344 344
318 320 322 322 324 325 324 325 325 326 327 328 327 323 324 323 326 325 323 322 322 320 319 320 320 322 323 323 328 329 329 327 330 334 334 337 337 337 337 339 339 339 342
319 322 323 323 323 323 321 323 321 321 324 327 327 327 325 325 325 324 322 322 321 320 319 320 321 321 321 322 320 323 324 329 326 333 335 334 334 335 335 336 335 335 336
318 321 323 323 323 322 322 325 323 325 326 327 327 327 326 327 327 325 323 322 322 320 320 320 320 319 319 323 319 319 318 323 325 331 333 331 331 332 334 335 334 335 335
317 319 323 323 321 321 324 326 323 324 324 324 325 324 324 326 327 326 324 322 322 321 320 320 320 320 318 321 324 319 315 314 324 329 330 330 332 332 333 333 334 335 335
318 321 322 322 320 323 322 324 322 320 319 322 324 325 324 326 325 326 325 324 322 321 321 322 324 322 324 320 322 326 324 324 320 319 328 329 330 330 330 331 332 333 334
319 319 321 320 319 323 322 323 323 322 324 324 323 323 322 325 325 327 325 324 321 321 321 325 321 322 324 322 321 322 322 323 325 321 319 322 327 329 329 329 331 332 333
317 319 320 321 320 323 326 322 323 323 325 322 319 321 321 324 323 325 326 323 321 321 322 323 323 323 322 323 323 322 322 321 322 323 321 321 321 325 327 329 329 331 333

GFSSE_sfc_thetae_006.txt.gz
Theta_e
332 341 355 355 353 351 348 347 347 346 345 342 341 340 340 339 337 335 333 333 332 333 334 335 336 337 339 340 341 342 344 345 351 353 355 357 355 352 354 359 359 355 359
334 343 355 354 353 352 351 350 349 348 347 344 341 341 341 340 339 338 337 334 334 334 335 336 336 337 338 339 341 342 343 344 349 353 354 355 356 356 357 359 358 355 359
333 344 351 355 354 353 352 351 351 350 349 345 345 345 344 343 342 341 340 339 337 337 336 337 337 337 337 340 342 342 342 344 347 351 354 350 350 355 356 357 357 356 357
335 342 347 355 354 354 353 353 353 351 349 347 347 347 347 345 343 342 342 341 340 340 340 339 338 338 338 337 340 342 342 344 346 351 347 347 349 354 356 356 356 356 357
335 341 345 355 354 354 353 353 353 352 350 349 348 347 346 345 344 343 343 343 342 343 342 341 340 340 338 338 342 344 344 345 345 349 346 344 346 351 356 355 355 355 356
337 340 347 355 354 354 353 352 352 351 350 348 347 346 344 343 344 345 343 342 342 341 341 342 342 340 339 341 343 344 344 344 345 344 344 346 344 350 354 355 355 355 357
337 340 349 355 355 355 353 352 352 352 350 347 346 345 343 343 344 343 341 341 341 341 341 342 341 342 343 342 342 343 343 344 342 342 342 342 344 350 354 356 356 355 356
342 346 349 354 355 355 355 352 350 347 345 343 341 340 341 341 341 340 340 339 339 339 340 340 342 342 342 342 342 342 342 343 341 340 342 342 345 350 353 354 354 354 356
341 344 345 348 352 352 350 349 347 345 342 338 334 334 335 335 336 337 337 337 338 338 338 340 342 342 342 341 340 341 342 342 337 338 341 340 346 350 353 355 354 355 355
332 336 336 335 336 337 340 345 344 340 336 335 335 335 334 333 334 334 335 335 336 336 337 339 340 341 340 341 340 339 341 342 336 338 338 342 348 351 352 353 353 354 353
322 325 330 328 330 332 333 336 340 338 336 336 335 334 333 326 324 326 331 335 336 338 338 337 339 339 338 339 338 337 340 332 336 336 338 347 349 350 352 353 353 353 351
313 315 316 319 323 327 333 330 330 328 328 328 325 324 322 322 322 328 331 334 335 336 337 337 338 338 338 328 329 334 331 332 334 335 337 348 349 350 351 350 349 346 348
312 316 317 319 320 321 323 324 323 321 321 322 323 323 323 323 322 322 322 324 324 331 328 332 331 331 329 326 326 328 330 331 331 333 339 347 348 350 350 350 350 349 348
313 314 315 319 320 321 323 323 322 323 321 321 321 322 321 321 320 321 322 323 323 324 325 325 325 326 327 326 325 324 330 330 329 331 336 347 348 349 349 350 348 347 346
313 317 319 320 322 323 323 322 322 322 322 322 321 323 323 321 320 325 325 324 321 322 323 322 324 324 324 325 324 323 327 329 329 331 335 347 347 347 348 348 346 345 346
316 319 319 320 323 324 322 322 323 322 324 323 323 323 323 322 323 324 319 320 319 320 322 322 322 322 323 324 323 324 327 329 330 332 334 338 345 345 346 347 347 346 346
315 319 318 320 322 322 322 322 322 323 325 323 324 323 323 322 322 321 319 319 320 320 320 321 321 322 322 323 323 323 328 329 330 332 335 336 339 345 344 346 347 346 345
315 317 319 324 321 321 319 321 323 324 324 323 323 323 324 324 323 320 319 320 320 319 319 319 319 319 320 320 321 322 326 328 330 332 334 335 334 338 344 344 345 344 345
316 316 318 319 319 319 321 322 323 324 323 324 323 323 322 323 322 320 320 320 320 318 317 318 317 319 318 319 321 322 324 325 330 333 334 333 336 336 339 344 343 343 341
316 317 319 320 319 321 322 321 323 322 324 325 325 323 323 322 323 321 320 320 320 317 316 317 316 319 319 319 324 323 323 323 329 330 333 335 337 335 337 338 339 338 338
317 318 318 319 320 321 318 319 318 319 322 323 326 326 325 322 323 321 320 320 319 317 316 317 317 318 317 319 317 318 319 323 326 331 333 334 334 335 336 336 336 335 337
317 319 319 320 319 320 318 322 320 321 322 323 324 325 327 325 326 323 321 320 319 317 317 318 318 316 317 319 316 318 314 319 326 330 332 332 332 334 333 333 333 333 333
316 318 320 320 320 318 321 321 320 320 321 322 323 324 323 324 327 324 322 320 319 318 317 317 318 317 316 318 319 320 314 312 319 328 328 330 331 332 332 331 332 332 333
314 317 320 320 318 320 320 319 319 318 317 319 320 321 321 323 324 324 322 321 320 318 317 318 320 319 319 317 320 324 323 322 317 318 327 328 330 330 330 331 331 332 332
317 317 320 317 320 321 319 320 320 317 319 319 319 319 320 322 325 324 323 321 319 318 318 321 319 319 319 319 320 321 321 320 322 322 318 323 327 329 330 330 330 331 333
315 317 317 316 318 320 320 320 319 318 318 317 317 318 318 319 323 322 323 320 318 318 319 319 319 320 319 321 323 324 322 319 320 322 321 321 321 325 328 329 330 331 331

GFSSE_sfc_thetae_009.txt.gz
Theta_e
329 336 356 354 353 349 347 346 344 342 342 341 340 339 338 337 335 334 333 332 332 332 332 333 333 334 336 337 339 340 342 343 345 352 353 356 355 355 357 357 359 355 359
327 337 355 355 352 350 349 348 348 347 346 342 341 340 340 339 339 337 336 334 334 334 335 335 335 335 335 337 338 340 341 343 344 350 352 354 355 355 357 357 359 356 358
328 337 351 354 353 352 351 350 349 348 347 344 342 340 340 341 340 340 339 339 338 337 337 337 337 336 336 336 338 340 341 342 343 347 352 349 348 354 354 357 357 359 358
333 340 347 354 354 352 352 351 350 348 346 345 344 344 344 344 343 342 341 341 341 340 340 340 339 338 337 337 336 339 341 341 344 345 346 348 348 352 353 354 356 357 357
334 341 345 354 353 353 352 352 351 349 348 346 346 346 345 345 344 343 342 342 343 343 342 341 341 340 340 338 338 341 340 342 344 343 344 344 344 349 352 352 354 356 356
332 339 347 355 354 354 353 352 352 350 349 347 348 346 345 344 343 343 343 343 342 342 341 342 342 342 341 340 342 341 342 344 343 339 342 344 344 349 351 351 353 355 356
331 336 344 354 354 354 353 351 350 350 350 349 348 346 345 344 343 342 342 341 341 341 340 340 341 343 342 342 343 342 343 342 338 338 340 341 342 348 352 351 353 353 354
334 336 343 353 354 354 354 352 352 352 350 348 346 344 343 342 342 341 341 341 339 339 340 340 342 343 342 342 342 343 343 342 339 337 339 339 343 348 351 353 354 353 353
337 340 344 347 351 354 353 353 352 348 346 344 342 338 336 335 336 336 337 337 338 338 338 339 340 342 342 341 340 341 342 342 335 336 338 337 345 349 352 354 355 354 353
338 341 342 342 344 342 343 350 348 345 343 340 336 335 335 335 334 334 334 335 336 336 336 338 338 341 341 340 340 339 340 340 334 334 336 337 346 349 351 353 353 353 352
331 331 333 333 332 333 335 338 343 342 338 336 335 336 334 327 325 327 329 332 334 336 337 337 337 340 339 338 338 338 338 331 332 333 334 342 347 350 351 353 353 352 351
321 323 326 326 328 329 333 330 329 328 327 327 328 325 323 321 320 325 329 333 334 335 335 336 337 338 337 329 330 336 328 330 331 333 333 342 346 350 350 352 352 351 352
319 317 318 320 324 325 325 324 325 324 321 321 323 322 320 322 321 321 321 321 322 328 326 328 330 330 330 327 326 327 328 329 329 331 335 342 345 349 350 351 351 351 350
311 314 316 318 319 319 321 322 322 320 320 319 320 321 319 319 319 319 319 321 321 322 322 323 324 325 325 326 326 325 326 328 328 328 331 341 345 348 350 350 349 349 349
310 313 316 317 318 319 320 320 320 320 321 320 319 320 321 319 319 319 321 323 323 322 321 320 322 323 324 325 324 324 323 325 328 328 328 338 345 347 348 349 349 347 347
312 314 316 318 320 321 320 320 320 320 320 320 321 321 323 321 319 320 321 321 318 318 319 320 321 321 321 322 323 323 322 325 327 328 329 332 343 346 347 347 347 348 348
314 316 318 319 321 321 319 320 320 321 322 321 322 322 322 321 320 320 318 317 318 318 318 319 319 320 320 321 321 322 322 324 326 328 330 332 335 344 345 347 348 347 347
316 317 318 323 320 320 319 319 320 321 321 321 321 321 323 322 321 319 317 317 319 318 317 317 317 317 317 318 318 319 322 323 326 328 330 332 332 336 344 346 346 346 345
317 317 317 319 318 318 317 318 320 321 321 322 321 321 322 324 323 319 317 318 319 317 316 316 315 317 316 317 318 319 321 321 325 330 330 331 332 334 336 342 343 344 345
315 316 317 317 317 317 318 318 319 320 320 322 322 322 323 322 323 318 317 318 319 316 315 314 314 316 316 316 321 320 319 321 324 326 329 333 334 335 335 337 339 340 343
315 316 317 316 316 318 317 316 317 317 318 320 323 324 324 325 322 320 318 319 318 316 315 315 315 315 315 317 315 315 320 324 326 328 331 331 333 334 335 336 337 336 335
315 316 316 317 318 318 316 318 318 317 320 320 321 326 327 325 323 323 320 319 317 315 314 315 315 314 315 316 313 313 310 315 324 327 330 330 332 334 334 334 331 332 333
316 316 317 317 318 318 318 318 318 318 319 319 319 320 321 323 324 324 322 319 317 316 314 314 315 316 314 317 317 315 312 308 319 326 328 330 331 330 332 332 331 332 333
315 317 318 318 317 317 319 317 316 316 315 316 317 318 319 322 323 323 321 319 317 316 314 315 317 316 316 315 317 321 318 318 315 316 325 327 330 328 329 330 330 331 332
314 317 317 318 316 318 318 317 318 315 316 317 317 316 317 319 322 322 320 319 317 316 315 317 317 317 317 316 318 320 321 319 321 321 317 321 326 328 329 329 330 331 332
314 316 316 316 317 318 318 318 317 316 315 314 315 315 315 317 320 320 321 318 317 316 318 317 317 318 318 318 321 322 321 319 319 320 320 320 321 324 328 329 329 330 331

GFSSE_sfc_thetae_012.txt.gz
Theta_e
327 332 355 355 351 348 345 342 342 341 340 339 338 337 336 334 333 332 332 331 331 331 331 331 331 332 333 334 336 337 339 342 344 347 353 354 354 355 358 357 358 355 360
331 333 355 354 352 348 348 346 345 345 344 341 340 339 338 337 336 336 335 334 334 335 334 334 333 333 333 334 335 337 338 340 343 344 351 352 354 355 356 356 357 355 359
326 334 350 354 353 351 350 350 349 347 346 343 341 341 340 340 340 340 339 338 337 337 337 337 337 336 335 335 336 338 339 340 340 343 347 351 350 354 354 356 358 357 357
328 336 347 354 353 352 352 351 350 348 346 344 342 341 340 341 341 341 341 340 341 340 340 340 340 340 338 336 336 336 338 339 340 342 345 348 348 353 354 356 357 356 356
330 338 345 355 353 353 352 351 350 349 348 344 344 343 343 344 344 344 342 342 341 342 343 342 340 340 341 339 338 340 339 338 341 341 343 347 348 350 353 353 353 356 356
333 339 347 354 354 353 353 352 351 348 348 346 346 345 345 345 344 344 343 343 342 342 342 341 340 342 343 342 341 342 340 338 342 340 343 344 348 348 352 353 353 353 354
331 337 344 354 354 354 353 351 351 351 350 349 347 347 345 345 344 343 342 342 342 342 341 341 340 340 344 343 342 343 342 339 339 340 341 343 345 347 350 352 353 353 351
331 335 341 352 354 353 353 353 352 352 351 350 349 347 346 343 343 342 342 341 341 340 340 339 341 342 343 343 341 342 342 341 339 339 341 342 343 346 350 352 353 354 351
331 334 339 345 351 354 353 352 352 352 351 350 348 345 343 340 337 337 337 337 338 338 338 339 340 341 342 341 340 341 341 342 339 339 339 341 343 347 350 351 352 354 354
333 334 338 343 347 345 348 353 352 352 348 345 343 341 336 336 336 335 334 334 335 336 336 337 338 339 341 341 340 339 340 340 339 337 339 340 344 346 349 351 352 354 354
333 334 336 340 341 339 340 345 350 346 344 342 338 336 337 331 328 330 331 332 332 334 336 337 337 338 340 339 339 339 340 336 336 336 338 340 344 345 349 350 352 353 353
328 330 334 334 334 333 336 333 334 333 331 328 329 329 327 325 324 326 329 332 333 334 335 336 336 338 338 333 334 338 335 333 334 335 337 340 343 344 348 349 351 352 352
326 330 329 329 328 328 329 326 327 325 325 325 326 326 324 323 322 324 324 324 324 327 328 329 329 331 333 332 331 332 332 331 333 334 336 339 342 343 347 348 350 351 351
316 323 323 324 325 324 324 323 324 323 322 320 321 323 321 320 321 321 321 322 323 324 325 326 326 328 330 330 329 329 330 331 332 332 333 338 340 343 347 348 349 350 350
311 315 318 320 320 321 320 321 321 321 322 321 320 321 321 320 320 321 322 323 324 326 324 324 324 326 327 328 329 328 328 328 330 332 333 336 338 341 346 347 349 349 349
311 313 316 319 318 319 319 319 320 320 321 321 321 321 323 322 321 321 321 322 322 322 322 323 323 324 325 326 327 327 327 327 328 330 332 333 336 339 345 346 348 348 349
310 313 317 318 318 319 319 319 319 320 321 321 321 323 323 323 322 322 321 321 321 322 322 322 322 324 324 324 325 326 326 326 327 329 332 333 335 338 344 346 347 347 349
312 314 317 321 320 319 319 319 320 320 321 321 322 323 324 324 322 321 321 320 321 321 321 320 320 321 322 322 323 324 326 326 328 328 331 334 336 339 341 346 347 346 346
314 315 317 319 319 319 318 318 319 321 321 322 322 322 323 324 324 322 320 320 321 320 320 319 319 320 320 320 321 323 324 325 326 331 332 334 336 339 339 342 346 344 345
316 316 318 319 318 318 317 317 319 320 321 322 323 323 324 324 325 322 319 319 320 320 318 318 318 320 320 321 323 324 323 325 327 330 331 334 335 337 339 339 344 343 343
315 316 317 317 316 316 317 317 316 318 319 321 324 325 325 325 326 322 319 319 321 319 319 318 318 318 319 321 320 320 322 326 327 329 332 332 333 334 338 339 337 339 339
316 316 315 316 316 317 317 317 319 318 320 321 322 324 326 326 325 324 321 321 320 319 318 317 318 317 318 320 318 317 315 320 326 328 328 332 331 335 335 336 335 336 336
314 315 316 316 317 318 318 319 319 319 320 319 320 322 323 325 325 324 323 322 320 319 317 317 318 318 317 319 321 319 314 313 320 326 329 330 331 332 332 332 332 333 332
315 316 317 317 318 318 318 317 317 317 316 318 319 320 321 324 325 325 323 322 320 319 317 318 319 320 321 318 321 324 322 323 318 317 325 328 329 329 330 330 329 331 332
315 316 317 318 318 318 318 318 319 317 317 318 319 319 322 322 324 324 322 321 320 319 319 318 320 320 321 321 322 322 322 322 325 322 316 321 325 327 329 330 330 331 330
315 316 317 317 316 317 317 318 319 317 317 316 318 318 318 319 321 323 322 321 321 320 319 320 321 321 321 322 323 325 324 322 322 323 321 321 321 325 328 329 330 330 331

GFSSE_sfc_thetae_015.txt.gz
Theta_e
329 332 355 354 352 349 346 343 342 341 340 339 338 337 336 335 334 333 332 331 331 330 331 331 331 331 332 334 335 336 338 340 342 344 350 353 355 357 358 358 358 355 360
334 334 355 355 352 350 349 346 346 345 344 340 340 338 337 336 335 335 335 334 334 334 334 334 334 333 333 334 335 336 337 338 340 343 345 351 353 356 357 356 358 356 360
332 337 351 355 353 351 350 348 347 347 346 343 341 340 339 339 339 339 338 338 338 338 338 338 337 337 336 336 335 337 338 338 339 341 343 352 354 355 356 356 357 357 358
334 341 345 355 353 352 351 350 349 348 346 344 343 342 341 341 341 341 341 341 340 340 339 340 340 341 340 338 337 337 337 338 338 340 340 347 352 353 355 356 356 357 357
336 342 349 355 353 352 352 352 351 349 348 346 343 342 342 343 343 345 343 343 342 341 340 342 343 342 341 341 340 338 338 337 338 340 339 343 353 351 354 355 355 356 356
335 342 349 355 353 353 352 352 352 350 349 346 344 344 344 344 345 345 345 344 343 343 342 343 342 343 342 343 342 341 341 337 337 338 341 341 348 350 352 353 354 354 354
335 339 347 354 354 353 354 353 352 351 350 349 347 346 347 346 345 345 344 343 343 342 342 342 342 344 342 344 343 343 342 338 336 337 341 342 344 347 350 353 353 353 353
338 340 346 354 354 353 353 352 352 351 351 351 350 349 349 346 345 344 343 342 342 342 342 341 341 343 343 343 343 342 341 340 336 338 340 341 344 345 349 351 352 351 352
341 342 346 350 354 354 353 352 352 352 351 351 350 350 347 344 342 338 337 337 338 338 339 340 340 341 341 340 341 342 341 340 338 338 338 340 343 346 348 350 352 352 353
339 342 345 350 350 350 350 353 352 352 352 351 350 346 344 339 336 336 336 335 335 336 337 338 339 339 340 341 341 340 340 340 339 339 339 338 343 345 347 350 351 352 352
336 339 343 344 348 348 348 349 352 352 350 348 344 342 340 336 337 336 334 334 334 333 334 336 337 337 339 339 338 339 339 338 338 338 338 341 342 344 345 348 351 352 352
334 336 339 343 346 347 346 349 349 347 344 342 341 339 338 339 338 334 333 333 333 334 335 336 337 337 336 337 335 338 337 337 338 338 337 340 342 343 344 347 348 351 352
334 337 339 343 346 346 345 345 345 342 341 341 340 339 338 336 335 333 332 333 334 331 331 332 333 332 332 337 336 336 336 337 337 338 336 339 340 342 343 345 348 350 351
332 336 340 343 344 346 344 342 339 338 337 335 336 338 337 334 335 333 331 332 333 332 333 334 333 335 335 336 337 336 337 336 336 337 335 338 339 341 342 344 347 349 350
330 333 339 342 342 343 341 338 336 336 334 335 335 335 334 333 333 333 332 332 332 332 333 332 333 333 334 336 336 336 335 336 337 336 334 337 338 339 341 343 347 348 349
330 330 335 338 342 339 337 337 335 335 334 335 334 334 334 333 333 332 332 332 332 333 331 332 331 331 331 334 334 335 335 336 336 335 331 334 336 338 339 343 346 347 348
328 328 331 337 338 336 336 335 334 333 334 333 334 336 334 335 334 334 333 332 332 333 332 332 331 332 331 333 333 334 334 335 334 334 332 335 336 337 339 341 345 346 347
327 324 329 330 333 334 334 333 332 332 333 333 334 335 335 336 336 335 332 332 333 331 330 330 329 328 329 330 332 333 333 334 334 334 333 334 338 339 340 341 345 345 347
325 326 327 330 331 331 333 332 333 334 333 334 335 335 336 335 335 334 333 332 333 330 329 329 329 328 327 329 330 331 331 331 333 333 334 339 341 343 342 343 345 345 346
324 329 330 330 331 332 331 331 331 332 333 334 334 335 335 335 335 334 332 331 331 328 328 329 329 328 328 330 328 330 331 332 333 335 337 338 340 342 344 345 345 345 341
324 326 328 329 331 330 327 327 328 329 332 333 334 336 335 336 335 335 330 329 327 326 329 330 328 327 326 330 328 328 328 333 335 337 340 341 339 340 343 343 345 347 345
324 326 328 329 330 330 330 331 332 333 334 334 335 336 336 336 336 334 332 329 329 328 329 328 327 324 327 329 326 326 320 325 331 334 336 336 337 338 339 341 345 346 344
323 325 327 329 330 331 332 331 333 334 333 332 334 335 335 334 333 333 332 332 332 330 329 328 327 326 322 326 330 327 319 316 324 333 332 332 334 335 336 339 340 338 337
323 326 329 330 331 331 333 332 332 331 330 331 333 333 334 332 332 333 333 333 332 330 329 327 328 327 327 323 327 330 333 330 321 320 332 331 333 332 332 332 333 334 337
324 326 328 331 331 332 332 332 332 333 332 333 333 331 332 333 332 331 332 332 332 330 330 329 328 328 328 328 329 328 331 332 332 325 318 323 327 330 330 332 332 332 332
325 327 328 330 331 331 331 332 334 332 330 329 330 330 331 331 332 332 330 332 331 331 331 329 330 330 330 332 333 333 331 328 328 328 322 323 322 325 329 332 332 332 332

GFSSE_sfc_thetae_021.txt.gz
Theta_e
340 349 355 354 352 350 347 344 344 342 342 339 338 337 336 334 333 332 332 332 332 331 331 331 331 331 332 333 334 336 337 338 342 346 348 352 354 355 356 357 360 356 359
340 350 355 354 353 351 349 347 346 346 345 341 340 338 337 335 334 334 333 334 334 334 334 334 334 335 334 334 335 336 337 338 339 342 346 348 354 355 356 357 357 356 358
340 350 351 354 353 352 350 349 349 348 346 343 341 340 339 337 336 335 336 336 336 336 336 337 338 338 339 337 336 336 337 338 340 340 342 345 352 355 356 357 357 356 357
340 351 347 354 354 353 352 350 350 348 346 344 343 342 341 340 339 338 339 340 340 340 339 340 340 341 341 341 340 338 337 338 339 341 335 332 344 357 355 357 357 356 356
340 350 349 354 353 353 352 351 350 350 348 345 344 343 342 342 342 341 342 342 343 343 343 342 342 342 343 343 343 342 340 339 338 338 332 330 336 350 356 355 357 355 356
338 345 353 354 354 354 353 352 351 350 348 347 345 344 343 343 344 344 343 344 345 345 346 344 344 343 344 344 344 344 343 341 339 335 332 333 334 349 350 354 355 356 356
338 340 352 355 354 354 354 352 352 351 350 349 346 345 344 346 346 346 345 346 346 346 346 345 345 345 344 344 343 344 343 343 341 338 333 336 336 346 349 349 353 353 355
338 341 347 356 355 354 354 353 352 351 350 350 349 348 348 349 348 347 347 346 346 344 344 343 343 344 343 342 342 341 341 341 341 341 338 334 346 346 345 348 351 351 352
340 340 343 357 356 354 354 352 352 352 352 351 350 349 350 349 349 348 346 344 342 339 339 339 340 341 342 341 341 341 341 342 339 339 339 337 348 345 342 344 350 351 351
340 340 342 350 356 354 350 354 353 353 352 352 351 350 350 348 348 346 343 340 338 337 336 336 338 339 340 342 343 341 341 341 339 337 338 339 347 344 341 342 349 350 351
335 340 342 341 350 353 348 349 353 352 351 351 349 349 349 344 339 343 342 338 336 336 335 335 335 336 338 339 340 341 340 337 336 336 335 347 345 344 342 340 346 349 349
331 336 340 344 347 350 345 350 352 347 347 347 346 345 346 343 342 340 342 335 336 336 336 335 336 337 338 335 335 340 337 335 335 335 335 346 343 341 339 341 343 347 348
332 334 339 352 355 351 346 344 349 346 345 347 347 350 347 340 341 340 340 339 339 337 337 336 336 336 335 333 334 335 335 335 333 335 338 346 343 342 340 341 343 345 348
332 334 339 345 355 357 349 343 346 346 346 344 345 349 345 340 342 341 338 339 340 337 340 336 334 341 336 336 336 334 335 336 335 336 340 342 340 339 339 341 343 343 347
332 334 336 347 355 358 359 346 347 348 343 344 342 343 342 340 342 339 340 338 338 336 335 339 337 335 338 336 335 334 334 337 337 338 339 342 340 339 338 340 342 343 346
335 336 338 348 356 354 355 359 353 352 344 341 339 339 344 342 343 339 341 337 338 337 336 335 335 336 336 334 335 335 337 337 336 339 337 341 340 338 338 340 341 342 345
335 341 344 352 356 357 357 355 352 345 342 339 338 342 342 344 343 342 338 339 343 347 340 339 337 337 332 333 335 335 334 336 335 337 338 336 336 340 339 340 341 341 344
338 342 343 340 348 356 356 353 349 342 340 337 337 339 343 344 343 342 339 339 345 342 342 339 334 332 331 330 333 332 333 335 336 337 337 337 334 335 339 342 341 341 345
342 345 342 348 345 353 356 351 350 351 339 336 337 338 341 342 341 342 339 341 343 340 337 336 335 333 331 330 332 335 335 335 335 334 334 335 335 335 338 342 343 343 346
337 342 347 346 353 356 351 350 342 338 337 336 337 337 341 340 339 343 339 342 343 337 336 334 335 331 330 335 329 331 334 333 333 334 335 332 334 336 337 339 340 340 345
336 339 344 343 352 350 345 339 336 333 336 335 336 339 339 340 342 342 341 340 340 336 334 335 332 332 332 335 331 330 332 335 335 332 333 332 333 335 341 338 340 340 342
336 339 340 341 347 348 343 342 337 337 334 334 336 339 340 340 341 339 339 340 339 338 336 332 335 332 334 336 327 328 322 327 333 332 333 333 335 334 338 339 339 345 346
335 338 339 341 345 346 347 342 339 337 337 334 333 334 338 339 340 340 338 338 338 339 336 336 334 331 329 333 332 329 322 320 325 333 333 332 339 341 340 343 343 343 348
335 337 339 342 342 342 346 343 344 334 329 332 336 334 337 338 337 337 337 336 336 339 335 334 336 332 333 329 333 331 333 331 322 321 334 337 341 340 342 342 346 346 347
335 336 339 341 340 342 342 344 335 336 331 333 333 336 339 339 337 336 336 336 337 338 337 335 333 333 335 333 332 335 331 332 331 320 320 329 334 337 339 340 344 345 345
334 336 338 338 338 340 338 339 339 337 334 332 333 335 337 340 338 337 334 336 337 338 335 333 335 334 334 336 337 333 335 329 325 327 328 327 326 328 332 333 338 341 338

GFSSE_sfc_thetae_024.txt.gz
Theta_e
343 347 356 354 353 351 349 346 346 345 344 342 339 339 340 339 337 335 334 333 333 331 330 330 331 331 331 332 333 335 336 337 340 345 348 351 354 355 356 358 357 354 359
346 347 354 354 352 351 349 348 348 346 345 344 342 341 341 339 336 335 335 334 334 334 333 333 334 334 334 334 334 335 336 338 340 340 343 347 351 355 356 357 356 354 357
347 346 349 353 352 351 350 349 348 347 346 345 344 342 341 339 336 335 335 335 335 335 335 336 337 338 338 338 337 336 337 340 342 340 340 337 343 356 357 356 357 355 356
349 347 345 353 352 352 350 349 348 348 347 346 346 344 342 339 338 337 337 338 338 339 338 339 339 341 341 342 341 339 339 339 340 339 335 329 332 357 356 355 356 356 356
349 349 348 354 353 353 352 350 350 349 348 348 345 344 342 342 341 341 340 341 342 343 343 343 342 342 342 344 344 343 342 341 339 337 330 328 328 337 356 355 354 356 355
344 348 353 353 353 353 352 351 351 350 349 349 346 346 345 344 345 345 343 343 343 345 346 346 345 345 345 347 346 346 346 343 342 336 332 331 333 353 354 353 352 353 355
337 347 353 353 354 354 353 352 351 350 349 349 348 347 347 347 347 346 346 345 346 346 346 346 346 346 344 344 345 345 345 343 340 337 337 333 332 348 352 352 350 351 352
341 345 355 354 354 353 353 352 351 350 350 350 349 349 348 348 348 348 349 348 347 346 345 344 344 345 344 344 344 345 342 341 337 338 339 335 347 351 349 349 350 349 350
340 343 355 353 353 354 353 352 351 350 350 350 349 350 350 349 350 350 349 348 345 344 341 340 340 341 344 343 343 344 342 342 337 336 337 337 349 350 347 347 348 349 349
338 340 354 353 351 351 351 353 352 351 351 351 351 351 350 349 349 349 349 347 343 341 338 337 337 338 340 342 343 344 341 342 337 336 334 336 349 348 346 346 347 348 349
329 338 351 354 354 352 349 350 353 352 352 352 351 351 349 344 340 344 346 346 344 341 339 338 336 336 337 338 341 341 342 337 334 335 334 344 347 346 344 344 346 347 349
327 330 339 343 353 352 349 348 350 349 348 347 345 345 347 343 344 340 342 345 340 340 338 337 337 337 336 333 333 340 336 336 333 332 334 347 348 345 344 342 343 345 347
329 330 339 346 349 351 348 347 349 346 346 344 344 346 347 345 344 341 339 339 337 339 335 335 334 333 334 333 332 335 335 335 333 332 335 347 346 345 342 342 342 344 346
329 336 343 346 350 350 349 346 349 348 345 344 345 348 346 345 343 343 340 340 336 338 335 338 334 336 335 336 335 334 332 334 331 332 337 346 346 344 342 342 342 343 347
333 335 342 348 349 352 354 346 347 349 345 345 346 348 345 342 341 344 342 343 342 341 336 337 336 336 335 335 334 334 332 334 334 336 337 345 343 343 342 341 342 342 344
337 339 347 350 350 352 348 355 349 351 348 346 346 345 345 343 344 343 343 341 339 339 338 337 335 335 334 334 334 334 333 334 334 336 336 338 341 342 342 340 341 342 343
338 345 347 353 352 350 352 350 360 352 351 346 345 346 344 344 345 345 342 341 340 342 339 337 336 336 333 333 331 333 334 333 334 336 335 338 337 341 341 341 340 342 343
343 343 348 338 351 353 354 351 351 351 347 346 344 345 345 347 345 344 341 339 342 341 339 336 334 332 332 331 330 331 332 333 333 335 334 334 335 334 339 341 342 343 343
342 344 348 348 351 352 354 353 351 355 346 346 345 343 344 344 344 342 339 339 343 339 337 335 333 332 331 329 329 330 331 331 332 333 333 334 335 333 334 338 341 343 344
345 352 352 351 355 353 353 352 350 347 345 344 343 343 346 343 343 342 340 341 341 337 335 334 332 332 330 328 330 328 331 332 333 330 330 334 332 331 334 337 337 338 343
341 347 352 354 358 351 349 346 344 339 340 340 342 344 343 344 342 343 340 340 338 336 334 333 332 330 328 329 326 327 327 330 330 330 332 331 330 331 332 338 335 334 337
342 345 350 350 351 351 349 347 344 341 337 338 340 343 343 342 342 336 339 337 338 335 333 330 330 328 327 330 323 322 317 323 327 330 330 330 329 332 333 337 336 338 336
340 343 344 347 351 350 351 347 349 341 344 339 341 340 341 341 340 340 339 337 336 334 332 330 330 328 324 329 327 322 315 314 319 326 329 330 330 332 333 335 336 337 337
337 340 343 346 348 349 347 343 341 336 335 338 337 338 339 341 339 339 338 336 336 335 333 333 332 330 327 323 326 327 326 323 317 315 324 326 328 330 331 332 334 336 338
337 339 342 345 345 346 344 343 341 340 339 341 339 340 341 341 339 338 338 337 336 335 334 333 332 330 329 326 325 325 325 324 324 319 315 320 325 328 330 332 334 335 337
336 338 341 341 342 341 345 345 341 340 341 338 337 338 338 339 340 338 337 336 336 335 334 333 332 331 330 329 328 327 326 321 320 319 313 320 322 327 330 334 332 334 337

GFSSE_sfc_thetae_027.txt.gz
Theta_e
341 349 356 355 353 352 349 346 345 345 343 342 340 339 338 339 337 335 334 334 332 332 332 331 331 332 331 331 332 333 334 334 336 340 345 348 351 355 355 354 357 354 358
343 349 356 355 353 351 350 348 347 347 346 344 341 340 338 338 336 336 335 334 334 334 334 333 334 334 334 333 333 332 333 334 336 336 338 341 346 353 355 352 355 356 358
343 347 351 354 353 351 350 349 348 347 346 345 344 342 340 340 337 337 336 336 336 335 335 335 335 336 337 338 336 336 335 335 336 337 337 332 335 345 355 355 354 357 357
342 345 347 354 352 351 351 349 348 347 347 346 345 342 340 340 339 337 337 337 337 338 338 338 339 339 340 341 341 340 339 337 337 337 332 333 330 341 356 355 353 354 357
340 343 344 353 352 351 351 350 349 348 348 347 345 343 341 341 341 342 340 340 341 342 343 342 342 342 342 342 344 343 342 340 339 337 330 327 324 333 350 355 354 355 354
341 341 349 353 353 352 351 350 349 349 349 348 346 345 344 343 343 344 342 342 342 343 344 345 346 345 344 344 347 345 345 344 343 336 332 332 332 340 355 354 353 352 354
341 340 349 353 353 352 352 351 350 350 349 349 349 347 346 347 347 346 344 343 344 345 346 345 346 346 345 345 344 344 345 344 339 337 335 335 331 351 354 355 353 351 351
342 341 347 352 353 352 352 352 351 349 349 349 349 349 349 349 348 347 345 346 347 347 345 345 344 344 345 344 344 345 345 342 337 333 336 335 340 353 354 353 352 350 350
342 343 346 347 350 354 353 351 350 350 349 349 349 349 349 349 349 349 349 348 348 347 345 343 341 341 342 343 343 344 344 342 336 334 335 333 346 349 351 351 351 350 350
340 346 345 345 346 345 347 353 351 350 350 349 349 349 350 349 350 350 349 349 347 345 343 340 339 338 339 342 343 343 342 342 335 334 334 333 343 349 349 350 349 350 350
329 345 345 345 345 344 344 348 351 352 351 350 349 350 348 342 341 343 346 348 347 344 343 341 340 338 337 337 339 341 342 333 334 334 333 339 344 348 347 347 348 350 350
317 342 345 345 344 344 346 345 346 345 344 345 344 343 342 339 334 337 342 350 348 347 346 343 340 338 337 330 330 337 334 333 333 331 331 342 346 347 346 346 347 349 350
317 322 344 345 345 344 344 344 345 344 343 344 340 338 340 339 335 337 333 340 336 343 333 337 333 332 330 329 329 327 332 333 332 331 332 342 345 346 346 344 346 347 348
317 319 337 346 347 345 345 342 343 342 342 341 341 337 339 337 335 333 331 333 331 331 330 328 329 330 329 331 331 330 332 333 330 331 330 342 344 346 346 344 343 344 347
316 319 325 340 346 345 341 343 342 341 340 339 338 338 339 336 331 331 330 331 330 330 329 329 331 331 329 329 331 331 329 329 329 333 333 342 344 343 344 344 343 343 345
318 319 326 339 343 344 342 341 342 342 341 339 339 339 340 335 332 332 333 332 330 329 329 329 328 327 327 327 327 328 331 328 329 332 335 334 342 342 345 343 343 343 343
322 321 328 336 340 341 341 339 341 343 341 339 339 341 339 335 333 334 331 330 330 330 330 328 328 328 327 327 326 330 331 328 328 331 331 331 336 341 342 344 343 343 343
321 323 328 342 341 342 340 341 343 342 339 338 336 338 337 335 335 334 330 330 330 331 329 328 327 326 326 325 324 326 327 328 327 332 330 332 332 332 338 341 343 344 345
319 324 329 337 342 342 342 341 342 340 336 334 333 333 338 337 338 333 331 330 331 331 329 328 327 325 323 324 324 324 324 324 326 330 329 328 330 331 331 339 340 342 344
319 326 330 335 341 342 344 341 340 337 334 334 332 333 335 336 337 333 332 331 330 329 328 326 325 325 324 323 326 325 323 325 326 324 328 330 329 329 330 329 334 336 343
328 333 335 338 342 344 342 340 336 332 331 331 333 333 335 335 335 333 330 329 330 328 328 326 325 323 323 323 319 320 322 324 324 325 325 326 327 327 325 332 332 333 336
326 333 336 342 343 343 342 338 336 331 330 331 330 331 333 334 333 330 330 328 328 326 326 325 325 322 321 322 317 316 310 314 321 324 325 325 325 325 326 333 332 333 331
330 333 336 338 341 340 340 338 333 329 328 327 327 329 331 332 333 330 330 327 327 326 325 322 322 321 318 319 323 317 310 308 312 319 322 324 325 328 326 331 331 333 332
330 333 334 339 339 339 337 332 329 324 324 325 325 327 329 332 334 332 329 328 326 326 324 324 325 321 320 317 319 322 321 318 311 309 317 320 323 324 325 326 327 330 332
331 331 335 337 336 335 332 330 327 323 325 326 328 327 328 328 330 331 329 328 326 325 325 324 323 322 321 318 317 317 320 319 319 316 309 313 319 322 324 326 327 328 331
332 334 335 334 332 332 331 330 326 325 326 323 325 326 325 327 328 329 330 326 325 325 325 325 325 323 321 320 320 320 317 314 313 315 311 312 314 319 324 326 327 327 328

GFSSE_sfc_thetae_030.txt.gz
Theta_e
340 347 357 355 353 351 349 346 346 345 344 343 340 339 338 338 336 335 334 333 333 332 332 332 332 331 330 330 331 331 332 332 333 335 339 344 347 351 354 356 356 352 359
341 348 357 354 353 351 350 348 348 347 346 345 342 339 338 338 336 336 335 334 333 333 334 334 334 333 333 333 332 332 332 333 333 333 334 337 340 344 351 353 355 352 358
341 347 352 355 353 352 350 349 348 347 347 345 343 341 339 339 337 337 336 335 335 336 336 335 335 335 336 337 337 335 335 335 335 334 334 330 332 337 347 352 354 355 355
342 346 348 354 353 352 350 349 348 347 347 346 344 342 340 339 338 338 337 337 337 338 337 337 338 338 339 340 340 340 339 338 337 337 330 330 329 336 340 353 353 355 354
341 345 347 354 352 352 351 349 348 347 347 347 344 343 341 341 341 341 338 338 339 340 341 341 342 342 342 342 343 343 342 341 340 338 331 328 324 331 341 350 352 354 354
341 344 350 353 352 352 351 350 348 347 347 347 346 345 343 342 343 343 341 341 342 342 343 344 345 345 344 344 346 345 345 344 343 336 333 333 333 338 343 357 354 353 354
338 340 347 353 352 352 352 351 349 348 348 348 348 347 345 345 345 343 343 343 343 343 344 345 345 347 345 345 345 346 344 344 339 336 335 334 334 342 349 355 353 354 353
336 336 344 352 352 352 351 350 349 348 348 348 349 349 348 348 347 345 345 344 344 346 347 346 345 345 344 343 343 344 344 343 339 333 333 333 338 346 354 355 353 353 352
339 336 341 345 349 352 351 350 349 349 348 348 349 349 349 349 349 348 347 346 346 347 348 346 344 343 342 342 342 344 343 343 335 333 334 332 339 347 351 353 352 352 352
339 338 341 342 343 345 345 351 350 349 349 348 349 349 349 349 349 348 347 349 348 348 348 345 343 341 340 340 340 341 342 343 335 334 334 333 340 342 349 350 350 351 352
337 339 341 341 340 342 343 346 350 351 349 349 348 349 347 342 342 344 347 347 348 348 348 345 343 342 339 338 338 339 341 334 333 333 332 339 340 342 346 350 349 349 350
333 339 340 341 341 339 342 342 344 343 343 343 342 341 342 338 337 342 343 348 349 349 348 346 343 341 338 329 329 335 331 332 332 332 331 339 341 343 346 346 348 348 349
320 339 341 341 341 340 339 340 343 341 340 341 340 339 340 339 336 336 333 336 343 347 338 341 337 334 329 328 328 327 328 331 331 332 335 339 341 343 345 345 345 347 349
316 333 341 341 341 340 340 339 340 340 339 339 340 338 338 335 332 331 330 330 333 333 331 329 329 328 328 328 328 327 327 329 330 331 330 339 342 342 344 345 344 345 346
314 315 338 341 340 341 339 340 340 339 338 339 339 338 337 334 332 331 330 329 330 328 328 327 326 327 327 327 328 329 329 330 331 330 328 338 341 344 346 343 343 344 347
316 316 329 340 340 341 340 339 340 340 338 338 338 336 336 336 333 331 329 327 329 328 328 327 326 326 327 327 326 326 326 328 330 329 330 333 340 343 344 343 342 343 343
316 317 322 336 342 341 341 339 340 339 339 337 336 336 337 336 333 331 330 330 329 327 327 327 326 325 324 325 325 326 327 327 326 327 330 333 333 343 342 343 343 343 343
316 317 317 335 340 341 341 338 340 340 338 337 336 337 338 337 333 331 329 328 329 328 327 325 324 324 324 324 323 324 324 326 326 327 329 330 330 332 340 342 342 343 342
318 318 318 332 335 338 339 337 339 339 338 335 335 338 337 336 334 332 330 329 329 328 326 326 325 322 321 322 322 323 322 322 324 327 327 328 329 332 331 337 341 341 343
317 317 319 333 333 336 336 336 336 333 331 331 333 335 335 335 336 331 330 329 328 327 325 324 324 323 322 321 324 324 322 322 323 323 324 328 326 330 329 329 332 334 342
316 316 323 333 335 339 337 337 334 330 329 329 331 334 333 333 334 331 329 328 327 327 326 324 323 323 323 324 321 318 318 321 322 322 323 324 325 327 327 327 329 330 334
323 327 327 333 338 339 340 336 333 330 327 329 329 334 335 333 333 330 329 327 326 324 323 322 321 319 320 324 318 315 312 316 321 322 322 323 324 324 324 327 329 331 331
323 329 333 336 337 337 336 334 328 327 326 324 324 326 329 332 331 329 328 326 325 324 323 321 319 319 316 318 319 317 311 308 311 315 319 321 322 322 323 326 329 330 331
326 332 336 337 337 337 337 332 329 323 322 323 324 325 327 330 330 330 328 327 325 323 321 321 322 319 317 314 316 320 316 315 310 307 314 318 320 322 322 323 326 329 329
329 330 336 336 336 334 332 331 327 322 323 322 324 324 326 326 328 330 327 326 324 323 322 322 322 320 318 316 314 315 315 315 317 312 306 311 317 319 320 322 323 326 329
329 332 334 333 329 330 329 326 323 323 322 323 322 323 323 324 326 327 327 324 324 323 323 322 323 322 320 318 317 316 316 314 313 312 312 309 312 320 324 327 324 324 327

GFSSE_sfc_thetae_033.txt.gz
Theta_e
335 342 356 356 353 350 348 346 347 346 346 344 342 340 340 340 339 336 335 334 334 333 332 332 332 331 330 330 330 331 331 331 333 335 337 342 345 350 352 353 356 353 357
337 346 356 355 353 350 350 349 348 348 346 345 343 340 338 338 337 336 334 334 334 334 334 334 334 334 332 332 332 331 331 331 331 332 333 335 339 341 348 352 352 352 356
340 346 351 355 353 352 351 350 349 348 347 346 343 341 340 339 337 336 335 335 335 335 335 335 334 334 335 335 335 334 334 333 332 332 332 329 330 336 341 350 352 352 354
342 346 348 354 353 352 351 350 349 347 347 346 344 341 339 339 338 337 337 336 337 337 337 336 337 338 338 338 338 339 338 337 337 336 329 328 327 334 338 341 351 353 351
342 346 347 354 353 352 352 350 348 347 347 346 344 342 341 340 340 340 338 338 338 339 339 339 340 340 341 341 341 342 341 341 340 338 331 328 325 333 340 343 351 353 352
340 345 348 354 353 352 352 350 349 348 347 347 345 344 342 341 342 342 339 339 339 340 341 342 343 343 344 344 343 343 344 344 343 336 333 333 333 338 344 345 352 354 355
339 343 346 354 353 353 352 351 349 348 347 347 347 345 344 345 344 341 340 341 341 342 343 343 344 346 346 346 345 345 344 345 340 336 335 333 332 341 344 351 355 354 354
337 339 343 353 353 352 352 350 348 347 347 347 347 347 346 346 345 342 342 343 343 343 344 345 345 346 345 345 344 344 344 344 340 335 333 331 335 341 346 353 352 352 352
336 337 341 347 349 352 351 350 348 348 347 347 347 347 347 347 347 346 345 343 344 344 346 347 346 346 345 344 343 343 343 343 336 333 333 331 336 341 345 352 351 352 352
334 333 337 342 343 344 345 351 349 348 348 347 348 348 348 348 348 348 346 347 344 346 347 348 347 345 344 343 341 340 341 341 335 333 332 332 340 341 343 350 349 350 352
335 332 334 338 339 341 341 344 349 349 349 348 348 348 346 342 342 343 345 346 345 347 348 348 346 345 342 340 339 338 339 332 333 332 332 338 341 341 341 345 350 350 350
331 333 336 337 336 338 339 338 342 341 341 342 341 341 342 337 336 341 343 345 345 347 348 348 347 343 341 330 328 335 330 330 331 331 331 340 341 341 342 344 347 349 348
323 332 337 338 337 335 336 337 339 340 339 340 339 337 337 337 336 339 334 336 338 346 340 343 340 336 332 328 327 326 326 328 330 331 334 339 340 340 342 343 346 347 349
313 328 337 339 338 336 334 336 335 338 337 337 338 336 336 335 331 331 331 329 332 336 336 333 333 330 328 328 327 326 326 326 328 330 331 339 339 340 341 342 343 344 347
312 318 334 338 338 338 335 335 335 337 336 335 336 337 336 334 331 330 329 328 329 330 331 329 327 326 326 326 327 327 327 328 329 329 328 337 340 341 341 342 343 343 342
314 313 325 337 338 338 337 335 335 336 336 334 336 337 335 334 331 330 329 328 327 327 328 327 326 325 325 325 325 326 326 325 327 328 328 328 338 342 344 345 344 341 341
315 316 317 333 337 337 337 336 337 337 336 334 336 336 335 333 331 330 329 326 327 327 326 325 325 324 323 324 324 325 325 325 326 326 327 328 331 339 342 343 345 341 340
314 313 314 328 337 337 337 337 337 338 337 335 335 335 335 334 332 329 331 328 328 326 325 324 323 322 322 321 321 322 323 323 325 325 325 328 328 332 338 341 343 342 341
314 314 314 325 335 337 337 337 336 335 336 335 334 334 334 335 333 332 330 328 327 325 324 324 322 322 320 321 322 322 322 322 322 325 325 326 327 331 331 339 341 341 342
313 314 314 322 329 335 334 331 332 334 331 333 334 336 336 335 334 331 329 328 327 325 324 323 322 321 321 321 323 324 322 321 321 321 323 326 325 328 329 328 330 333 341
313 313 314 321 327 333 333 332 331 332 330 329 334 334 334 334 334 331 328 327 325 325 325 322 321 321 320 322 318 320 320 322 320 320 322 322 324 326 327 327 327 329 332
314 314 312 319 329 333 335 334 329 328 326 329 332 334 334 333 332 329 327 326 325 323 323 321 324 318 320 322 316 316 312 316 318 320 320 322 322 324 325 327 326 328 328
313 317 320 323 331 332 331 329 327 326 325 324 325 328 329 331 331 329 328 326 324 322 322 320 318 319 315 320 318 314 308 308 312 318 318 320 321 320 321 323 326 328 328
314 325 328 331 332 333 332 328 328 326 324 321 323 324 326 330 330 329 331 328 326 324 321 320 321 317 316 314 315 318 314 313 312 309 314 316 319 320 320 321 324 326 328
325 328 331 333 333 332 330 329 326 323 322 321 322 323 323 325 328 329 329 328 325 321 321 321 321 318 317 316 314 313 313 313 314 311 307 311 315 317 318 320 322 324 326
326 331 332 332 328 329 328 326 325 323 321 321 320 321 321 322 324 327 326 324 323 322 321 321 321 320 318 317 315 314 313 312 311 312 310 308 310 318 323 325 320 321 325

GFSSE_sfc_thetae_036.txt.gz
Theta_e
333 344 357 356 353 351 351 349 349 349 349 347 346 346 346 346 343 341 339 337 335 335 333 332 332 332 332 331 332 332 332 332 333 335 337 341 345 347 351 351 352 351 356
336 347 357 355 354 352 351 350 350 349 348 347 346 344 343 343 340 338 337 335 335 334 334 334 334 334 333 333 333 332 332 331 331 332 333 335 337 340 344 351 350 352 353
337 347 352 355 355 352 351 351 350 349 348 347 345 344 343 342 340 338 338 336 335 335 335 336 335 334 334 335 335 334 334 333 333 332 332 331 331 334 340 345 353 352 355
339 346 348 355 354 353 352 351 350 349 348 347 346 344 342 342 341 337 337 336 336 337 336 335 335 336 336 336 337 338 338 337 336 335 332 332 330 332 337 340 350 352 353
341 345 345 355 354 353 352 351 350 349 348 347 346 344 343 342 343 341 338 338 338 339 338 338 339 339 339 339 339 340 341 341 340 339 335 334 332 334 341 344 342 352 353
340 343 348 354 353 353 353 352 350 349 349 348 347 346 345 342 343 342 339 339 339 340 341 340 341 341 342 343 343 342 342 344 343 340 338 337 338 338 343 346 349 349 354
338 341 345 354 353 353 353 353 351 349 349 348 348 346 345 345 343 342 340 340 340 341 342 343 343 344 345 346 346 345 344 343 343 341 339 338 336 339 343 347 352 352 353
338 341 343 353 353 352 352 352 350 349 349 348 348 347 346 346 345 343 341 341 341 342 343 344 344 345 345 344 344 344 344 344 342 340 338 337 336 340 343 348 350 353 353
336 339 340 348 350 353 352 351 350 349 348 348 347 347 347 346 346 345 344 343 343 344 344 345 346 346 346 344 342 342 343 343 341 338 336 336 337 339 342 347 348 351 352
332 335 335 342 345 346 346 352 350 349 348 348 347 347 347 347 347 346 345 346 344 344 345 347 347 346 345 344 341 340 340 340 338 337 337 336 340 342 341 344 348 350 350
333 330 332 338 340 342 342 345 350 350 349 348 348 348 346 342 342 342 345 345 345 346 346 348 348 347 344 341 340 339 338 335 335 336 336 338 341 342 341 341 345 349 350
330 332 330 333 337 339 340 340 343 342 342 342 342 342 342 339 340 342 343 345 345 347 348 349 349 346 342 336 334 336 333 333 334 335 335 340 340 341 342 341 344 348 349
324 331 333 332 335 336 337 336 338 340 339 340 339 339 340 338 340 342 338 341 340 345 342 346 345 343 337 334 332 330 330 330 331 333 335 339 340 341 341 341 343 348 348
315 320 331 334 334 334 335 334 335 337 336 337 339 337 337 338 336 337 336 335 335 337 340 339 338 337 335 334 331 330 329 329 329 331 333 337 340 341 340 342 344 347 345
312 314 319 334 335 335 333 332 333 334 335 335 336 337 337 336 333 333 334 332 330 333 336 336 335 334 332 331 330 330 329 330 330 332 332 336 339 341 341 342 343 342 343
313 313 315 331 336 336 333 332 333 333 334 333 334 336 336 335 332 332 331 329 329 330 332 333 332 331 329 329 329 329 329 330 331 331 334 334 337 340 341 342 343 344 342
313 314 313 324 334 335 336 334 333 333 334 333 333 335 336 334 331 331 330 328 330 330 330 330 329 329 328 328 328 329 329 329 329 330 331 333 332 336 340 341 343 343 343
312 312 314 321 333 335 335 336 335 334 334 334 333 336 335 334 332 329 329 329 330 329 329 328 327 326 326 326 326 327 328 328 329 330 330 331 332 333 336 341 342 343 341
313 313 313 315 328 333 335 336 335 334 335 334 334 335 335 334 333 330 329 330 330 329 328 327 326 327 325 325 325 326 327 327 327 328 329 330 332 334 335 337 340 341 341
313 313 312 313 320 330 332 331 331 333 334 333 333 334 334 334 334 331 330 330 330 328 327 326 326 325 326 325 325 326 326 327 325 326 327 329 330 332 334 334 337 337 340
312 312 313 313 320 332 332 330 329 332 332 332 334 335 335 335 334 332 331 330 330 328 328 327 325 325 324 326 323 323 323 325 323 324 326 328 329 330 331 332 334 334 335
311 312 312 313 323 332 333 330 330 330 331 332 333 335 336 335 334 332 331 330 328 327 327 326 326 323 322 324 321 318 316 320 321 323 325 326 327 329 330 332 333 332 334
309 311 313 313 324 329 330 328 326 326 326 326 329 331 333 334 334 332 330 328 327 327 326 324 324 322 319 323 323 319 312 312 314 320 322 325 326 327 329 329 331 332 333
310 312 319 322 327 330 329 327 328 325 325 324 328 329 331 333 332 331 329 329 328 328 326 325 324 322 321 318 321 321 318 318 315 313 319 321 324 325 326 327 329 332 333
308 319 325 328 330 330 329 329 326 323 322 323 325 326 327 328 330 331 331 330 328 327 326 324 324 321 321 320 319 318 318 318 319 317 311 314 320 323 325 326 329 330 332
319 327 330 329 327 328 328 326 325 323 323 323 322 323 324 325 327 330 330 329 327 326 325 325 325 324 322 321 320 319 318 318 317 317 314 314 317 321 325 327 327 329 332

GFSSE_sfc_thetae_042.txt.gz
Theta_e
342 350 359 359 358 357 355 354 355 359 359 360 360 359 358 357 355 352 349 346 344 342 340 339 337 336 336 335 335 334 334 334 334 336 339 343 346 348 351 350 352 353 356
343 350 358 358 357 357 356 354 353 355 356 357 358 357 355 353 351 348 345 343 342 340 338 336 335 335 335 335 335 334 334 333 332 331 332 336 339 341 345 350 350 353 355
344 350 355 357 356 356 355 354 352 352 354 354 355 354 353 351 350 348 345 341 339 337 336 337 336 336 336 336 336 336 335 335 334 333 333 328 334 336 342 343 351 351 353
347 351 347 356 355 355 355 353 353 353 352 352 352 352 351 350 349 346 344 341 339 339 338 339 338 337 337 338 338 338 338 337 337 337 335 331 326 331 338 342 343 351 352
349 351 348 356 354 355 354 353 352 352 352 352 352 351 350 349 347 346 344 344 340 340 340 339 338 340 341 341 341 340 340 340 340 340 337 336 334 330 339 342 346 347 352
348 350 351 355 354 354 354 353 352 352 351 351 351 350 349 348 347 346 345 344 344 341 341 340 342 342 342 343 342 342 342 343 344 343 341 341 336 336 339 344 345 347 349
345 349 349 355 354 355 355 354 352 351 351 350 350 349 348 348 347 346 345 344 345 343 342 342 343 343 344 345 345 345 345 343 344 344 344 343 340 338 340 344 348 349 352
344 349 348 356 355 355 354 353 352 351 350 350 350 349 349 348 347 346 346 345 346 347 345 344 344 345 345 346 345 344 345 345 343 343 344 344 341 337 339 344 348 350 353
348 349 349 353 355 355 354 353 352 351 350 349 349 349 349 348 347 347 346 346 347 347 348 348 347 346 345 344 344 343 343 343 341 341 341 343 343 338 339 342 346 347 349
348 347 350 352 349 349 349 354 353 352 351 350 350 349 348 349 348 347 346 346 347 347 348 348 348 347 347 345 344 343 342 341 337 337 339 341 342 340 341 341 343 345 345
342 348 350 348 350 349 346 347 353 353 352 351 350 350 348 342 343 343 342 345 347 348 348 348 348 348 348 346 344 342 341 340 339 337 336 343 341 341 342 341 342 343 345
340 345 348 351 350 350 345 348 351 347 349 346 343 344 344 342 343 340 342 347 348 349 348 348 348 348 348 344 344 342 340 341 340 339 337 341 340 342 342 342 342 342 344
339 340 346 352 354 351 349 346 347 348 346 346 346 350 348 341 343 341 339 342 343 347 344 346 347 347 345 343 341 340 340 339 337 337 339 338 339 340 340 341 342 342 345
332 333 339 350 353 355 350 348 349 347 347 346 346 353 349 345 345 343 338 340 341 340 342 344 343 347 346 345 344 341 340 339 339 339 341 339 339 341 342 341 342 342 345
332 334 336 342 354 356 356 351 352 352 348 349 348 350 346 343 346 343 343 339 340 340 340 341 343 345 345 345 344 342 340 340 340 340 339 341 339 340 342 343 342 342 344
332 334 338 339 350 354 356 357 354 354 351 350 348 347 351 346 348 341 341 340 338 339 340 340 341 343 343 343 343 343 342 341 341 341 339 340 340 339 340 341 342 342 344
333 336 339 342 344 351 352 353 354 350 350 347 348 351 349 350 350 348 340 340 338 342 341 340 341 344 342 342 343 343 344 342 340 341 341 339 339 340 339 340 341 342 343
335 336 339 336 335 344 351 349 347 346 347 348 347 349 349 350 349 347 342 339 339 341 339 338 338 336 339 339 341 344 344 342 339 340 341 340 339 338 340 341 341 341 342
334 337 337 340 338 341 348 346 350 353 349 347 348 348 350 349 349 346 343 340 346 338 337 336 336 337 337 344 341 343 343 339 339 338 341 341 341 340 337 341 341 342 344
332 337 339 340 348 345 341 345 345 346 348 348 347 348 350 349 348 347 344 344 343 338 336 336 337 338 343 341 337 336 339 340 340 341 340 342 341 339 340 339 340 338 343
331 338 342 342 350 342 336 338 341 341 345 346 348 350 349 349 348 346 345 343 343 338 337 339 338 343 341 339 335 334 334 337 339 338 337 340 339 338 339 339 339 346 338
332 337 343 344 347 343 338 343 342 344 345 347 347 349 349 348 348 344 347 344 343 339 339 339 344 338 337 339 333 331 324 331 335 336 338 337 336 337 335 338 339 342 343
329 336 338 342 343 344 344 344 347 348 346 341 343 345 346 347 345 344 346 346 344 341 338 343 342 341 333 337 338 330 322 321 328 332 332 335 335 340 340 339 341 341 342
325 328 335 340 339 340 346 349 351 343 339 341 345 344 342 344 345 348 348 346 345 342 345 343 342 340 339 332 330 332 333 330 323 322 328 332 329 335 338 340 342 341 341
323 324 331 335 337 342 346 349 346 347 344 346 346 342 343 345 346 347 348 347 346 344 345 343 343 343 339 335 331 329 329 328 331 327 323 327 330 332 339 337 342 346 341
322 324 327 332 340 344 347 348 349 349 348 345 346 342 343 345 347 348 347 347 347 345 345 344 343 342 339 334 331 333 327 326 328 328 327 324 325 327 337 340 339 346 343

GFSSE_sfc_thetae_045.txt.gz
Theta_e
341 355 360 360 359 357 356 358 361 363 363 363 362 362 361 360 358 355 353 349 347 345 343 340 338 337 336 334 333 333 333 334 335 338 342 345 347 349 352 351 352 352 356
342 356 359 359 359 357 355 358 360 361 362 362 362 361 360 358 356 353 350 346 344 342 340 338 336 335 335 334 333 332 331 331 330 330 332 340 345 346 346 351 350 352 355
342 357 353 358 358 357 355 356 358 360 360 361 361 360 358 356 354 351 349 344 342 341 339 337 336 336 337 336 335 334 334 333 334 333 332 326 341 345 344 345 351 351 354
345 354 346 358 357 358 355 354 355 357 358 359 359 357 356 354 352 348 346 343 341 339 338 338 338 338 337 337 337 337 337 336 337 338 334 328 326 342 342 343 344 350 352
347 352 351 357 357 357 356 354 353 354 355 356 355 354 353 352 351 349 346 344 341 340 339 340 339 338 340 341 341 340 340 339 340 339 337 333 333 336 342 342 347 348 352
345 350 356 356 356 356 356 355 354 353 353 353 353 353 352 350 350 348 346 345 343 341 341 341 339 342 342 342 342 342 342 342 345 345 341 339 335 336 338 342 344 345 347
343 348 355 356 356 356 356 355 354 354 353 353 353 352 350 350 349 347 346 345 344 344 342 341 342 343 343 344 345 345 344 345 344 343 346 343 341 339 336 341 344 347 348
342 348 356 356 355 355 354 354 353 352 352 352 352 351 350 349 349 348 346 346 346 347 346 344 345 344 344 345 346 347 346 347 344 343 342 346 342 341 338 340 345 349 350
343 346 357 357 354 355 355 354 352 351 351 351 350 350 349 349 349 348 347 347 347 348 348 348 348 347 346 346 345 344 344 344 341 339 341 342 345 342 339 340 345 348 347
342 345 347 358 352 348 349 355 353 352 352 351 350 351 350 349 349 348 346 347 348 348 349 349 349 349 347 346 345 344 344 343 339 337 338 344 345 342 340 340 342 345 346
339 344 347 348 352 350 346 348 353 353 353 351 351 351 348 342 343 342 342 345 348 348 349 349 349 349 349 348 346 345 343 339 339 339 337 346 344 342 340 341 342 343 344
337 341 346 350 352 351 345 350 352 347 347 346 343 346 344 342 341 338 341 345 348 349 349 349 350 348 348 344 345 344 340 340 340 339 339 343 341 339 340 342 342 343 344
337 339 343 356 357 353 349 346 347 349 348 349 350 350 348 341 341 340 340 340 342 346 341 345 346 346 344 344 341 344 341 339 337 336 339 342 339 337 340 341 342 343 344
338 340 340 349 360 363 353 349 349 348 351 350 349 354 348 346 347 346 341 340 345 341 343 343 341 346 345 345 344 342 340 339 336 337 341 342 340 340 341 341 341 342 343
334 336 338 342 360 365 364 352 353 353 350 351 352 355 351 346 347 343 346 341 343 340 341 342 343 345 347 344 343 342 340 341 340 338 339 343 341 341 342 343 344 343 343
335 336 338 340 360 361 362 365 362 361 351 351 350 354 357 351 351 345 346 343 342 341 340 341 342 342 344 345 343 343 342 342 342 342 339 342 343 342 342 342 343 343 343
335 338 341 346 349 364 365 363 360 351 351 349 350 361 360 357 354 352 346 344 344 344 349 346 348 344 342 344 344 343 342 342 342 344 342 340 341 343 343 342 342 342 343
339 342 347 337 341 359 359 356 351 347 349 348 349 352 359 360 357 355 345 345 346 344 341 339 338 338 342 339 341 348 345 343 342 341 339 339 342 338 342 343 342 342 343
339 343 341 347 340 350 357 349 350 356 348 346 348 349 358 356 354 353 347 346 352 343 341 340 339 340 337 338 338 345 348 345 342 337 340 340 341 342 338 342 342 343 343
339 345 349 345 351 357 347 353 342 342 345 348 348 349 357 353 352 353 348 351 349 342 340 340 342 339 337 337 340 343 341 342 340 339 339 345 340 342 341 339 340 338 342
339 343 347 346 352 346 337 336 336 338 343 347 349 355 353 353 352 353 347 350 349 343 345 348 340 341 335 343 342 333 337 340 341 338 347 344 341 339 341 337 340 344 338
337 342 344 347 350 352 341 344 339 344 342 346 349 354 353 352 353 351 352 350 350 344 348 346 344 334 338 343 336 330 325 329 334 337 344 341 338 337 336 335 338 341 345
334 339 341 346 350 353 352 346 350 349 350 345 349 350 350 350 351 350 350 351 349 348 340 345 343 344 342 340 339 332 322 324 332 336 335 337 339 341 335 341 338 341 345
330 332 339 344 349 351 357 345 352 344 342 346 347 348 348 349 347 347 348 348 348 345 346 343 344 345 345 334 336 335 335 331 324 323 335 335 337 337 340 336 338 341 342
327 331 337 342 347 350 352 350 343 350 345 346 346 350 347 347 346 347 348 348 348 345 351 350 347 345 339 338 333 330 332 328 331 327 323 329 332 334 335 338 342 343 343
323 325 333 339 345 348 349 354 357 356 355 346 348 342 342 344 347 347 348 349 351 350 349 345 345 343 346 341 334 336 328 325 327 328 327 329 330 333 333 339 341 341 342

GFSSE_sfc_thetae_048.txt.gz
Theta_e
347 351 360 360 358 358 360 362 363 364 363 362 361 361 361 360 358 355 354 352 351 349 345 342 341 339 337 336 334 335 336 335 336 339 344 347 349 352 353 352 352 352 354
349 351 359 358 358 357 359 361 362 363 363 362 362 362 361 360 358 356 353 350 348 344 341 339 337 336 335 334 334 333 333 332 330 330 332 339 346 349 349 353 352 353 354
347 350 354 358 358 356 357 360 361 362 362 362 362 361 360 359 356 354 352 349 345 341 339 337 335 335 335 335 334 334 334 333 333 335 334 325 341 349 348 348 352 353 354
350 348 350 358 357 357 356 358 360 360 361 362 361 360 358 357 356 353 350 346 343 340 338 336 336 336 336 336 336 335 336 336 338 339 333 329 331 348 348 347 347 350 352
353 345 352 358 357 357 355 356 358 359 359 360 360 359 358 356 354 351 349 347 342 340 338 338 338 338 337 338 339 339 339 340 341 340 335 334 332 343 346 345 349 348 351
348 346 356 357 357 357 356 354 355 357 358 358 358 358 356 354 353 350 349 347 346 342 341 340 342 340 341 342 342 342 342 344 344 339 342 337 335 343 341 344 345 345 347
346 348 354 357 357 357 356 355 354 354 355 356 356 356 354 353 351 350 348 347 346 346 344 343 344 345 345 344 344 344 345 346 343 340 341 341 335 341 339 341 342 346 348
343 351 354 356 356 356 356 355 353 353 353 353 354 354 353 351 351 349 348 347 347 347 347 347 346 347 347 347 347 348 347 347 344 340 341 343 341 344 340 340 342 347 351
345 355 354 352 354 356 355 354 354 352 352 352 352 352 351 351 350 349 347 347 347 347 347 347 347 348 348 348 348 347 346 344 340 336 337 342 346 346 341 340 342 347 350
343 354 355 354 349 349 351 354 353 352 352 352 351 351 350 350 349 349 347 347 347 348 348 348 348 348 349 348 347 347 344 344 339 335 334 341 347 344 342 341 342 344 346
339 349 355 354 351 346 345 349 353 353 352 352 351 351 348 344 343 342 345 344 348 348 349 349 349 349 349 349 349 347 345 338 336 336 337 348 348 345 343 342 342 343 345
336 340 345 353 351 346 342 346 350 349 348 348 346 345 346 342 340 340 342 345 347 348 349 349 349 350 348 343 344 347 342 337 336 338 341 349 347 343 342 342 342 343 344
336 338 344 356 354 349 346 347 349 346 346 345 345 343 345 341 339 339 337 339 341 346 342 345 345 345 342 341 340 342 340 339 337 335 342 347 345 341 339 340 342 343 345
335 339 346 356 359 357 352 348 352 350 348 345 345 343 341 341 339 336 336 339 336 338 339 338 339 341 341 342 342 343 341 339 336 337 342 346 343 341 340 340 341 343 346
330 335 342 356 359 363 364 359 352 350 351 348 347 346 343 342 340 339 340 338 338 337 339 336 339 339 340 342 343 342 339 340 340 338 340 346 345 344 343 343 342 341 343
352 348 349 355 363 362 361 361 364 359 353 352 350 350 347 343 344 341 340 342 341 339 339 338 337 339 341 342 343 343 342 342 341 340 339 342 345 345 344 344 344 344 344
343 356 349 354 364 362 361 361 361 360 358 353 353 358 351 348 344 345 343 338 341 344 340 341 339 340 343 344 343 344 341 342 340 340 341 338 340 345 345 346 345 344 343
343 345 348 339 356 362 361 360 359 356 354 353 354 354 358 351 350 349 344 344 342 343 342 341 341 340 339 340 341 340 344 343 341 340 341 337 337 337 341 345 345 344 343
343 346 349 350 346 358 361 358 357 353 351 352 352 353 358 355 351 350 347 345 348 343 340 341 340 338 338 339 337 340 342 339 339 340 339 338 338 338 337 342 342 344 343
343 347 345 346 350 356 355 356 350 349 348 349 350 353 356 355 354 350 350 347 351 342 342 340 338 340 338 338 335 338 339 339 340 339 338 337 338 338 339 337 338 338 342
343 345 347 348 351 353 352 344 342 341 342 345 349 355 357 355 353 352 347 350 347 344 341 344 342 340 336 336 337 336 334 337 336 336 338 337 336 337 337 337 336 335 337
344 344 347 346 350 352 346 344 342 342 341 343 350 355 357 355 353 352 348 347 346 345 345 345 341 336 335 337 333 331 324 328 333 334 335 336 334 335 335 335 334 336 335
340 341 344 345 344 346 344 345 348 346 348 349 353 355 354 354 353 351 348 347 347 346 342 343 340 337 332 338 337 330 322 318 324 331 331 334 334 334 334 331 336 335 335
337 340 343 345 344 345 349 345 344 339 338 343 352 353 352 353 351 350 348 348 347 344 344 340 341 338 339 332 335 335 333 329 320 319 328 330 333 332 331 332 329 332 335
327 330 334 340 345 344 345 345 342 345 345 355 354 352 352 351 347 347 347 348 345 344 345 341 339 341 340 335 333 331 330 329 328 322 318 323 329 330 331 330 326 329 334
326 327 332 335 337 344 347 348 347 346 344 347 346 347 345 344 343 344 345 346 345 345 346 344 344 341 339 337 335 332 327 324 323 323 321 321 321 326 329 329 330 331 333

GFSSE_sfc_thetae_051.txt.gz
Theta_e
341 354 360 359 360 362 363 364 364 364 362 361 362 360 360 359 358 356 353 352 352 349 347 344 342 339 337 335 334 335 336 335 335 337 343 349 351 354 355 356 353 352 354
344 354 359 358 359 361 363 363 363 363 362 361 361 361 360 359 357 356 353 350 350 346 342 340 339 337 335 334 334 334 333 332 330 328 328 338 347 351 352 352 352 353 354
346 352 355 357 358 360 361 362 362 362 361 361 361 361 360 359 356 353 352 349 346 343 341 338 336 336 336 336 335 335 334 334 334 335 332 324 338 348 350 352 353 352 353
345 348 348 357 357 358 360 361 361 361 361 361 361 361 359 358 355 353 350 346 343 342 340 337 337 337 337 337 336 336 336 338 339 340 334 331 324 348 348 350 351 351 351
343 344 349 356 356 357 360 360 360 360 361 361 361 360 358 357 356 353 350 347 343 341 339 338 338 339 338 339 339 339 339 341 343 342 335 332 332 346 348 348 349 350 352
340 345 354 356 355 356 357 359 359 360 360 361 361 359 357 356 355 352 350 348 346 342 341 341 341 340 340 342 342 342 343 344 346 340 337 338 332 348 346 347 347 347 348
337 347 352 356 356 355 356 357 358 359 358 360 360 359 358 356 354 352 350 348 347 347 344 343 345 345 346 346 345 346 345 346 343 340 339 335 333 346 346 345 346 346 347
339 348 350 357 356 355 355 354 355 357 357 358 358 358 357 355 353 352 350 348 348 348 347 347 346 347 347 347 348 348 349 347 344 339 336 334 338 345 343 344 345 345 350
346 346 346 351 354 356 354 353 352 353 354 355 355 355 354 353 352 351 349 348 348 348 348 348 347 348 348 348 348 349 347 345 339 337 335 337 345 345 340 342 343 347 349
348 347 345 346 349 350 350 354 353 352 352 352 352 353 352 352 351 350 348 347 348 348 348 348 348 348 348 348 348 348 346 345 337 336 333 338 348 346 343 343 344 347 350
347 346 345 344 344 345 346 351 353 353 353 352 351 352 349 344 343 344 346 346 348 348 349 349 349 349 349 349 349 348 346 337 336 334 333 347 348 347 344 344 344 346 349
344 346 345 344 342 339 343 344 345 345 345 346 345 344 343 338 335 342 343 348 347 348 348 349 350 350 348 342 342 346 342 338 335 333 335 350 350 347 345 344 344 345 346
344 348 348 345 343 339 337 340 344 343 343 343 341 340 340 339 335 339 335 339 337 345 340 344 344 344 341 340 338 338 341 339 335 333 340 350 350 347 345 344 343 344 346
333 340 346 346 342 338 337 341 342 340 341 340 341 338 338 337 334 333 333 331 332 336 336 335 338 340 338 338 338 336 338 337 336 332 342 349 347 346 342 342 342 343 345
333 334 337 345 345 341 340 342 342 341 340 339 339 339 338 338 334 333 331 331 332 333 336 333 333 336 337 337 338 338 338 338 337 334 339 347 345 345 344 342 341 342 343
332 337 336 336 339 349 345 343 344 344 344 342 341 341 339 337 336 333 331 332 332 332 335 334 331 333 335 336 336 338 338 338 335 333 335 342 345 345 347 345 344 343 342
330 334 332 332 336 351 347 347 350 346 344 345 343 343 341 338 337 335 334 333 333 334 332 334 331 332 334 336 336 337 338 339 337 335 337 339 341 345 345 347 345 345 344
331 329 335 337 348 351 350 349 349 351 350 347 345 345 345 341 338 338 336 334 335 334 333 333 332 331 333 335 336 334 337 338 336 335 336 336 335 337 342 346 344 344 344
328 328 329 338 350 352 353 351 350 349 347 345 343 342 348 344 342 340 339 337 333 335 333 333 333 332 331 330 331 331 335 334 334 337 335 333 334 334 334 340 343 343 343
329 329 333 334 337 349 353 350 348 345 344 340 340 341 345 347 345 340 340 338 339 335 334 332 329 331 329 331 332 331 333 332 332 335 334 335 332 336 336 334 336 337 342
328 330 330 331 332 340 338 341 337 336 334 335 338 339 342 350 347 344 342 340 339 335 333 332 331 328 328 329 327 327 329 332 333 332 331 332 332 333 333 334 333 334 335
324 332 331 332 334 334 335 333 331 329 330 331 333 339 343 347 347 344 341 340 339 337 334 333 332 328 327 327 323 323 319 325 327 330 329 330 330 331 332 333 333 333 331
327 329 331 331 333 334 332 333 332 331 330 332 335 338 344 347 347 346 342 340 339 337 335 333 332 327 324 326 329 324 320 317 316 323 325 327 328 329 328 329 332 334 333
326 328 329 330 331 333 333 330 330 330 327 327 331 342 343 345 345 344 343 340 340 341 337 336 334 330 329 325 328 329 328 325 314 313 322 325 327 328 326 326 329 331 331
323 326 329 332 331 330 333 332 331 329 330 331 336 341 341 341 343 345 343 340 341 341 339 336 334 330 330 327 327 328 326 323 320 316 313 319 322 324 325 325 324 324 328
317 317 321 328 331 331 331 335 333 332 332 335 337 339 337 336 338 341 342 341 342 341 338 334 333 332 332 330 330 325 321 318 317 317 317 318 315 319 322 323 322 325 328

GFSSE_sfc_thetae_054.txt.gz
Theta_e
340 350 361 362 363 363 363 362 362 362 361 361 360 359 358 358 357 356 354 353 354 350 348 345 342 340 337 335 334 333 334 334 335 340 347 350 352 353 353 354 353 351 354
341 351 360 361 363 364 363 362 362 361 360 361 360 358 358 357 356 355 352 351 350 346 344 341 339 337 335 334 333 332 332 330 329 328 329 340 348 349 351 350 351 351 352
343 351 355 360 362 363 363 362 361 360 360 360 360 359 357 357 355 352 352 350 347 343 341 340 338 337 336 335 335 334 333 333 334 334 332 322 334 348 349 351 352 352 351
346 349 349 359 360 362 362 362 361 360 360 360 360 359 357 356 354 352 350 347 344 342 341 339 338 338 338 337 337 336 336 337 338 338 333 331 325 349 349 351 352 351 351
344 347 346 358 359 361 361 361 360 360 360 360 360 359 357 356 355 353 350 348 344 342 340 339 339 340 339 339 340 339 339 340 342 341 337 332 329 343 349 350 351 351 350
342 343 350 356 358 360 361 360 360 360 360 360 360 360 358 356 355 353 350 348 347 343 341 340 341 341 340 342 342 341 341 343 345 339 337 339 331 349 348 350 350 351 351
337 339 349 355 357 359 360 360 360 360 359 360 360 360 358 357 355 352 350 347 347 346 344 342 344 344 345 345 344 344 344 345 343 341 339 336 332 349 349 349 349 348 349
335 340 346 354 355 356 358 358 358 358 359 359 359 359 358 357 355 353 350 349 348 348 347 347 347 346 347 347 347 347 346 347 343 338 336 333 334 348 346 346 346 346 347
338 343 345 347 350 355 355 356 357 357 358 358 358 357 357 356 354 353 351 350 349 348 348 348 348 346 348 347 347 348 347 347 339 336 336 334 341 346 344 343 344 345 349
341 341 345 346 347 345 347 355 355 356 356 356 356 356 356 355 354 352 349 348 348 348 349 348 349 347 348 348 347 348 347 346 337 335 334 333 346 344 342 343 343 347 350
340 339 342 345 345 344 343 348 352 354 355 355 355 355 352 347 347 346 347 346 348 348 348 349 349 348 348 348 348 347 347 337 336 335 333 338 347 345 345 345 346 347 350
339 339 338 342 343 343 345 343 343 344 344 345 345 345 344 339 339 343 345 347 348 348 348 348 348 349 346 341 341 346 340 338 337 335 332 341 349 347 347 346 345 345 347
341 341 340 337 340 339 339 342 342 342 341 342 341 340 340 338 337 340 336 341 339 345 338 343 343 343 340 339 339 336 338 339 337 334 335 346 349 349 347 345 344 344 346
340 341 341 339 336 335 335 339 339 339 339 339 340 338 337 335 333 332 333 333 334 334 334 334 337 338 338 338 339 336 335 337 336 334 333 344 349 350 347 346 343 343 345
337 343 344 341 338 335 333 335 337 336 336 336 337 337 337 335 332 331 330 329 332 331 334 332 334 335 337 337 337 337 335 335 336 333 335 350 348 347 347 345 343 343 344
334 335 342 343 341 339 334 335 337 338 337 336 335 336 336 335 333 331 329 328 329 331 333 333 331 332 333 335 334 335 335 335 337 335 336 343 347 346 347 346 344 343 343
335 336 336 340 342 342 340 339 339 340 340 338 337 338 337 335 334 332 330 328 330 330 330 332 329 329 329 332 333 333 334 336 339 337 336 337 341 345 346 346 345 344 344
331 332 334 336 332 339 343 343 341 341 341 342 341 340 339 338 335 334 332 330 330 330 329 331 329 326 329 330 330 332 333 338 338 337 336 337 338 339 343 344 344 344 346
327 330 329 331 332 340 346 345 345 346 345 343 342 341 341 340 337 335 335 333 331 331 330 330 330 328 327 328 331 331 332 334 335 336 334 336 334 336 334 339 343 343 343
327 327 329 330 330 339 345 346 346 344 345 343 343 342 344 343 341 336 337 334 332 331 330 329 329 330 327 328 331 331 330 332 331 331 330 334 331 332 333 333 334 336 342
322 324 325 329 337 343 343 343 343 343 343 339 339 340 340 344 343 338 337 335 335 332 331 331 328 327 326 328 325 325 326 329 329 331 331 331 331 332 333 333 334 332 335
317 325 326 329 337 343 343 344 339 340 332 337 337 337 337 342 344 341 337 338 336 335 330 330 329 326 325 326 322 321 318 321 325 329 326 328 327 330 331 332 331 332 332
316 322 326 329 330 341 342 337 328 327 327 327 329 330 332 340 345 343 341 339 338 337 333 330 330 327 323 324 325 322 319 317 318 322 322 324 325 325 327 328 330 331 330
315 323 328 329 329 334 332 333 328 327 323 324 323 330 334 341 344 343 341 339 338 336 333 332 332 327 326 323 326 329 327 323 317 315 319 321 324 326 327 325 326 329 330
314 321 326 328 328 330 330 328 328 321 324 324 326 329 334 337 342 343 341 338 337 337 335 335 333 331 331 327 327 326 327 325 322 314 311 315 321 322 324 323 324 325 326
311 319 322 325 325 326 327 327 325 324 325 326 329 332 334 335 339 341 340 339 338 337 335 337 335 332 330 328 329 327 324 321 316 315 312 313 315 317 320 321 320 320 323

GFSSE_sfc_thetae_057.txt.gz
Theta_e
337 346 363 364 363 363 362 362 361 360 360 360 359 359 358 358 359 358 357 356 355 353 350 347 343 340 338 336 335 334 334 334 337 342 349 351 352 352 353 353 352 350 354
339 349 362 363 363 363 362 362 361 360 360 359 359 359 358 357 357 356 355 353 351 348 346 343 340 338 335 333 332 332 331 330 329 329 331 341 349 350 350 351 352 350 352
338 351 359 362 363 363 362 361 360 359 359 360 359 358 358 357 355 354 353 351 348 345 343 341 339 337 336 335 335 334 334 334 334 334 331 321 329 348 349 350 353 351 350
340 349 353 361 362 362 361 360 359 359 359 359 359 358 357 357 355 352 351 349 346 343 342 340 338 338 337 336 336 335 336 337 337 338 332 330 326 347 348 350 352 350 349
341 346 351 361 362 362 361 360 359 359 359 359 359 358 357 356 355 353 352 349 345 344 342 340 339 339 339 338 338 338 338 339 341 341 336 333 330 333 349 350 351 351 350
340 343 355 359 360 361 361 360 359 359 359 359 359 359 357 355 355 353 351 350 347 344 341 341 341 341 340 340 341 340 341 342 344 338 337 338 329 336 349 349 350 350 350
339 340 351 357 359 361 361 360 359 359 358 359 359 359 358 357 355 353 351 348 347 346 343 342 344 345 344 343 342 343 343 344 341 340 338 334 332 348 349 350 350 351 350
336 338 347 356 358 358 359 359 359 358 358 359 359 359 358 357 355 353 351 349 348 348 347 346 346 346 346 346 345 345 345 345 343 338 336 333 335 344 348 351 349 349 349
334 338 343 347 353 358 358 357 358 357 357 358 357 357 357 357 355 354 352 350 349 348 348 347 347 347 346 347 346 347 345 346 339 336 336 332 340 342 345 347 345 346 347
331 336 338 342 346 348 351 357 357 357 357 357 357 357 356 356 355 354 351 350 349 348 348 348 348 348 347 347 347 347 345 346 337 335 334 333 341 343 346 347 344 346 348
334 334 338 341 340 341 342 352 356 358 357 357 357 357 354 351 350 349 349 348 349 348 348 349 349 349 347 347 347 345 345 337 335 335 334 339 341 345 345 347 346 347 348
330 334 338 340 341 340 343 342 345 348 351 351 351 351 350 344 342 345 347 348 348 348 347 348 349 349 346 338 339 344 338 337 337 336 334 340 342 346 346 348 347 346 347
330 333 336 339 340 339 337 340 340 340 341 341 341 341 343 339 339 341 336 339 337 345 337 342 341 341 337 336 336 335 336 336 335 336 337 342 344 347 348 347 346 347 346
337 335 334 336 337 337 335 339 339 338 338 338 338 337 337 334 332 333 334 333 333 333 332 332 334 336 336 336 336 335 334 334 334 335 335 343 345 348 348 349 346 346 345
337 338 336 334 333 335 329 334 335 334 336 336 336 336 335 333 332 331 330 329 330 330 330 330 331 334 334 336 336 336 335 332 333 334 332 342 346 348 349 350 347 345 344
338 341 340 337 334 331 330 329 331 332 332 332 334 334 335 334 332 330 327 328 327 330 330 331 330 331 332 334 334 335 334 333 333 334 334 334 345 347 346 347 346 345 344
335 341 342 340 338 333 331 331 332 333 333 333 332 332 335 334 330 329 328 326 328 329 328 329 328 327 328 330 331 332 332 333 334 335 335 337 340 346 346 344 345 344 344
331 335 341 344 340 336 334 332 334 335 336 335 335 335 336 335 332 330 329 327 326 328 328 329 326 324 326 326 328 330 330 332 334 338 337 336 336 336 342 339 340 343 345
330 329 333 341 340 339 338 337 337 338 338 339 339 338 337 336 334 333 331 330 327 327 327 328 326 326 324 325 327 327 328 330 333 336 335 335 333 337 335 339 342 341 343
329 330 329 329 329 333 337 339 339 340 340 340 340 340 339 338 337 334 334 330 329 328 327 325 326 326 324 326 328 329 328 329 330 331 332 333 332 333 332 331 331 335 342
317 323 326 327 326 327 334 336 337 338 341 343 343 342 340 340 339 335 334 332 330 328 329 328 326 325 323 325 323 322 324 327 328 328 328 329 330 331 330 331 330 330 332
314 319 322 325 328 328 333 336 336 338 341 342 342 339 340 342 341 338 335 334 331 330 327 328 327 323 325 326 325 321 316 319 323 326 326 326 327 329 330 331 330 330 330
310 312 320 323 325 328 334 334 328 329 328 332 331 333 336 338 340 341 337 335 333 333 329 329 329 329 326 327 327 323 315 314 317 319 321 323 325 324 325 327 329 330 330
305 309 315 321 325 328 337 337 334 335 333 327 329 335 332 333 336 339 339 336 336 335 332 330 331 332 329 325 326 329 327 324 318 315 317 319 322 323 324 324 326 328 329
304 305 309 320 323 326 331 338 337 335 330 323 321 325 327 330 336 340 340 338 337 335 334 332 331 331 330 328 327 326 326 324 321 315 313 313 318 321 322 323 323 324 326
307 305 306 315 322 325 328 334 334 333 324 321 322 323 324 330 334 339 339 338 338 336 334 333 332 331 331 330 328 328 326 323 319 314 311 311 312 315 318 320 320 321 323

GFSSE_sfc_thetae_060.txt.gz
Theta_e
332 352 362 364 363 362 362 361 360 359 359 360 362 362 362 361 361 361 360 358 358 356 353 351 347 344 342 339 337 337 338 339 342 348 351 352 353 353 353 353 350 350 352
335 353 363 363 363 362 362 361 360 359 358 358 359 360 360 360 360 359 359 356 355 353 350 346 343 340 337 335 333 333 332 331 331 332 339 347 350 351 352 352 351 349 351
336 353 360 362 363 362 361 360 360 359 358 359 358 358 358 358 358 357 356 354 351 349 346 343 340 338 336 335 335 335 335 335 335 333 333 324 335 348 348 349 351 350 350
336 351 357 362 362 362 361 360 359 359 359 358 358 357 357 356 356 355 354 352 349 346 344 342 340 339 338 337 337 337 338 339 339 340 333 332 329 341 348 349 351 350 349
338 350 355 362 361 361 361 359 359 359 359 358 358 358 357 356 355 354 353 351 347 344 343 341 340 340 339 339 339 339 340 341 343 340 339 338 339 333 346 349 350 350 348
339 348 356 361 361 361 361 360 359 359 359 359 358 357 357 356 355 354 353 351 349 345 343 341 342 342 341 341 341 341 342 343 344 340 341 341 338 335 345 348 350 350 350
339 345 354 360 360 361 361 360 359 359 359 358 359 358 357 356 355 353 352 351 350 349 345 343 344 345 344 343 342 342 343 343 343 342 341 340 336 339 348 347 350 351 350
337 340 352 360 359 359 359 359 358 357 358 358 358 358 357 356 355 353 352 350 350 349 348 346 346 346 345 346 344 344 343 343 344 340 338 337 339 341 348 350 351 349 350
335 338 346 352 357 360 359 358 357 357 357 357 357 356 357 356 355 354 352 350 350 349 348 348 347 347 346 346 345 345 344 344 342 340 338 338 337 343 346 350 348 347 349
331 336 340 344 350 353 354 358 358 357 357 356 356 356 356 356 355 354 351 350 350 350 349 349 348 348 346 347 347 346 344 344 342 339 339 338 341 342 345 349 347 347 347
331 332 335 339 342 346 348 354 357 357 358 357 357 356 354 352 352 351 351 349 350 349 349 349 349 348 347 346 346 344 344 341 340 339 338 338 341 343 346 349 348 347 347
327 332 334 336 338 340 347 349 350 351 353 354 353 352 352 350 348 348 350 350 350 350 348 349 349 349 346 342 342 344 341 341 340 340 339 341 342 343 346 349 348 348 347
328 330 335 336 337 338 339 339 345 346 347 349 346 348 350 346 345 347 342 346 343 347 340 345 345 344 341 340 339 339 340 340 340 339 340 343 343 343 346 348 349 347 347
331 331 333 336 336 335 334 338 340 341 340 342 341 341 340 338 336 337 337 337 338 337 337 336 337 339 340 338 339 338 337 337 337 337 338 343 345 345 346 350 350 347 347
331 333 334 335 335 335 331 335 335 336 337 337 336 336 337 335 333 332 334 333 334 334 333 333 334 335 337 338 339 338 337 337 337 336 336 341 344 346 347 349 348 345 345
334 335 335 333 334 333 332 332 334 335 334 335 334 335 336 334 331 330 330 330 330 332 332 332 332 333 334 336 337 337 338 337 337 336 337 338 342 345 348 348 347 346 342
331 338 336 334 332 332 332 330 331 334 333 332 333 334 336 334 332 331 329 329 330 330 331 331 331 331 332 333 334 335 337 336 336 336 338 340 341 344 347 347 347 342 341
327 336 339 340 335 331 331 330 330 331 332 331 331 332 335 335 333 331 330 328 329 329 330 330 329 329 329 329 331 332 333 334 335 336 339 340 340 339 344 346 343 338 340
321 328 337 340 337 334 331 330 330 331 332 332 332 332 333 334 334 331 330 329 328 328 328 329 328 329 326 328 329 330 332 333 335 337 339 340 340 338 342 342 343 343 342
314 323 329 337 340 338 336 333 333 334 336 336 337 337 336 335 334 332 332 331 329 328 327 327 328 328 328 329 329 330 331 332 333 335 337 339 340 338 340 338 340 341 343
312 314 319 326 329 331 331 334 334 334 336 337 339 340 339 338 337 334 334 332 330 329 329 328 328 328 327 329 328 328 330 331 332 334 335 336 336 337 337 337 336 337 336
308 309 313 319 325 325 332 336 337 338 339 341 342 342 341 340 339 336 335 333 331 330 329 329 328 326 328 329 327 327 325 327 329 332 333 333 334 334 335 336 335 335 336
305 306 309 313 318 322 328 330 331 332 331 334 335 340 341 341 341 340 337 336 333 332 329 329 329 328 327 328 331 329 320 320 323 326 328 329 331 331 333 334 335 335 336
307 305 305 309 314 319 323 327 330 332 332 335 337 338 339 341 341 341 339 337 335 334 332 331 331 331 332 327 328 330 330 328 322 319 323 325 328 329 331 331 333 333 334
307 306 305 306 310 316 321 326 330 330 332 334 328 334 334 334 336 339 339 337 336 335 335 333 332 332 333 330 329 329 329 327 325 323 319 323 325 327 329 330 331 331 332
305 306 307 306 307 314 320 325 330 332 333 325 325 326 328 329 333 336 338 338 337 336 335 334 334 334 332 332 331 331 328 326 323 321 318 319 321 324 325 327 328 329 330

GFSSE_sfc_thetae_063.txt.gz
Theta_e
338 356 362 363 362 362 362 363 364 364 364 364 364 362 361 362 363 363 362 360 360 358 357 354 351 349 347 344 342 342 342 345 350 353 354 354 354 354 353 351 350 351 352
342 357 361 363 362 362 362 362 362 362 362 363 364 363 362 362 362 362 361 359 358 356 353 350 346 343 340 338 336 335 334 334 336 341 348 351 351 352 352 350 349 349 350
344 357 361 362 362 362 361 360 360 360 361 362 362 362 361 361 361 360 360 358 355 353 349 346 342 340 337 336 336 336 336 335 335 334 335 340 344 349 349 350 351 349 350
348 359 360 362 361 362 360 359 358 358 359 360 360 361 361 360 360 359 358 355 353 350 346 343 340 339 338 338 337 338 339 339 340 338 330 335 338 343 348 350 350 350 349
346 354 360 362 361 361 361 359 358 358 357 358 358 359 358 358 357 356 356 355 352 346 344 342 341 341 340 340 340 341 341 343 345 340 342 345 346 336 347 350 351 350 348
344 350 360 361 361 360 360 359 358 358 358 358 358 358 357 357 356 355 355 354 351 348 345 344 345 343 342 342 342 342 343 344 342 344 347 346 345 337 345 348 349 349 349
342 347 358 361 361 361 360 360 359 358 358 358 358 358 357 356 355 355 354 353 351 350 349 347 346 347 346 344 343 343 344 345 341 344 347 348 345 337 344 347 349 350 350
343 348 354 361 360 359 359 359 358 358 357 358 358 358 357 356 355 354 354 352 351 351 349 348 347 347 347 347 345 344 344 344 344 344 344 344 341 340 347 347 349 349 350
344 346 354 357 361 360 359 358 358 358 357 357 356 356 356 356 355 354 353 352 351 351 349 348 348 348 347 347 346 345 344 345 342 343 339 340 338 341 344 347 347 348 348
341 343 350 355 355 357 357 358 358 357 357 356 357 356 356 356 355 354 351 351 351 351 350 349 349 348 347 347 347 346 344 344 342 342 341 340 340 342 345 347 347 347 345
336 341 346 350 353 354 353 356 357 358 358 357 357 357 355 353 354 353 350 351 351 351 350 350 349 349 347 346 346 345 344 340 342 340 341 339 342 342 345 346 349 347 346
332 336 343 348 351 353 351 355 356 355 356 356 356 357 355 355 355 351 352 350 351 351 350 350 350 350 346 340 341 343 340 341 342 341 341 341 343 343 344 346 350 349 348
333 335 340 347 350 350 348 350 353 353 355 356 356 357 356 353 352 352 351 351 350 349 344 344 344 341 339 340 339 339 340 342 340 341 342 342 344 344 344 347 351 350 349
332 334 338 343 345 348 347 347 349 350 351 351 353 355 354 348 348 351 348 348 350 346 345 344 340 342 342 341 339 339 339 339 338 339 341 342 344 346 346 346 349 350 349
335 335 336 341 344 346 346 344 347 349 347 349 350 353 352 349 348 348 348 347 345 345 343 341 340 340 340 341 339 339 337 338 339 339 338 341 342 345 348 349 349 351 349
336 340 339 341 344 345 345 346 346 345 345 346 346 348 351 349 348 345 345 344 343 343 341 339 338 339 338 338 338 339 339 339 339 340 338 338 342 345 346 349 350 350 348
333 339 344 341 343 341 340 344 343 342 341 341 341 346 345 346 345 345 342 341 340 341 341 340 340 339 337 338 337 338 339 340 341 342 342 339 339 343 345 347 350 350 348
326 336 346 343 341 343 343 343 340 340 340 340 340 340 342 342 342 342 337 338 338 339 337 336 336 335 336 336 336 338 339 341 342 343 342 341 343 344 346 346 348 348 347
323 327 335 346 346 342 343 342 340 343 339 339 339 339 339 340 340 338 337 340 341 337 335 336 336 337 336 337 336 338 339 340 342 341 342 344 347 347 347 345 346 345 344
322 325 330 340 348 349 342 341 338 337 337 340 338 339 341 339 338 339 338 340 341 337 337 337 338 338 338 339 336 336 340 340 341 342 343 344 346 348 349 350 350 345 344
320 322 324 326 340 349 345 342 340 335 336 337 339 341 342 342 339 340 340 340 341 340 341 341 340 338 338 339 336 336 338 341 342 342 344 344 344 347 348 348 347 345 344
318 320 323 324 327 336 343 347 346 346 343 341 341 346 346 344 344 340 337 341 341 340 343 342 340 338 339 340 336 336 332 335 339 342 343 343 345 345 345 345 345 345 345
316 319 320 322 324 326 333 340 346 347 347 346 346 346 348 348 348 347 346 345 345 343 342 343 341 342 338 338 340 338 330 327 335 338 341 341 343 342 343 344 344 344 345
313 316 318 321 323 324 327 332 342 337 338 343 347 348 351 349 348 349 350 347 346 345 347 345 343 343 342 338 336 338 339 338 329 327 335 337 339 340 342 341 341 342 343
313 314 316 320 322 325 326 328 330 337 337 343 344 352 350 349 351 350 352 349 348 347 348 346 343 341 342 341 338 338 335 335 335 329 327 331 333 337 339 339 340 340 342
313 314 315 317 320 323 323 325 330 336 339 337 341 340 344 345 348 351 351 350 350 348 347 346 345 343 343 343 342 339 333 331 332 331 330 331 329 335 335 337 337 337 339